Time,TemperatureF,DewpointF,PressureIn,WindDirection,WindDirectionDegrees,WindSpeedMPH,WindSpeedGustMPH,Humidity,HourlyPrecipIn,Conditions,Clouds,dailyrainin,SolarRadiationWatts/m^2,SoftwareType,DateUTC
2015-07-30 00:02:00,77.0,45.7,29.96,NNW,331,2.0,5.0,33,0.00,,,0.00,0,Wunderground v.1.15,2015-07-30 07:02:00,
2015-07-30 00:07:00,76.9,45.6,29.96,North,351,0.0,6.0,33,0.00,,,0.00,0,Wunderground v.1.15,2015-07-30 07:07:00,
2015-07-30 00:12:00,76.7,45.4,29.96,NNW,333,2.0,4.0,33,0.00,,,0.00,0,Wunderground v.1.15,2015-07-30 07:12:00,
2015-07-30 00:17:00,76.6,45.3,29.96,North,355,3.0,6.0,33,0.00,,,0.00,0,Wunderground v.1.15,2015-07-30 07:17:00,
2015-07-30 00:24:00,76.5,46.0,29.96,NNW,348,6.0,6.0,34,0.00,,,0.00,0,Wunderground v.1.15,2015-07-30 07:24:00,
2015-07-30 00:28:00,75.7,45.3,29.96,North,355,4.0,5.0,34,0.00,,,0.00,0,Wunderground v.1.15,2015-07-30 07:28:00,
2015-07-30 00:29:00,76.2,45.8,29.96,NW,311,2.0,3.0,34,0.00,,,0.00,0,Wunderground v.1.15,2015-07-30 07:29:00,
2015-07-30 00:30:00,75.6,45.2,29.96,NNW,335,6.0,6.0,34,0.00,,,0.00,0,Wunderground v.1.15,2015-07-30 07:30:00,
2015-07-30 00:31:00,75.6,45.2,29.96,NNW,345,2.0,6.0,34,0.00,,,0.00,0,Wunderground v.1.15,2015-07-30 07:31:00,
2015-07-30 00:33:00,75.5,45.9,29.96,NNW,336,4.0,6.0,35,0.00,,,0.00,0,Wunderground v.1.15,2015-07-30 07:33:00,
2015-07-30 00:35:00,76.0,45.6,29.96,NW,322,4.0,4.0,34,0.00,,,0.00,0,Wunderground v.1.15,2015-07-30 07:35:00,
2015-07-30 00:38:00,75.3,45.7,29.96,NNW,328,4.0,6.0,35,0.00,,,0.00,0,Wunderground v.1.15,2015-07-30 07:38:00,
2015-07-30 00:39:00,75.2,45.7,29.96,NW,317,7.0,7.0,35,0.00,,,0.00,0,Wunderground v.1.15,2015-07-30 07:39:00,
2015-07-30 00:41:00,75.8,45.4,29.96,NW,323,4.0,4.0,34,0.00,,,0.00,0,Wunderground v.1.15,2015-07-30 07:41:00,
2015-07-30 00:42:00,75.1,45.6,29.96,NW,323,4.0,4.0,35,0.00,,,0.00,0,Wunderground v.1.15,2015-07-30 07:42:00,
2015-07-30 00:43:00,75.1,45.6,29.96,NW,315,3.0,4.0,35,0.00,,,0.00,0,Wunderground v.1.15,2015-07-30 07:43:00,
2015-07-30 00:44:00,75.1,45.6,29.96,NW,321,5.0,5.0,35,0.00,,,0.00,0,Wunderground v.1.15,2015-07-30 07:44:00,
2015-07-30 00:45:00,75.1,45.6,29.96,NNW,331,3.0,5.0,35,0.00,,,0.00,0,Wunderground v.1.15,2015-07-30 07:45:00,
2015-07-30 00:46:00,75.7,45.0,29.96,NW,326,4.0,8.0,34,0.00,,,0.00,,weatherlink.com 1.10,2015-07-30 07:46:00,
2015-07-30 00:47:00,75.0,45.5,29.96,NW,326,4.0,5.0,35,0.00,,,0.00,0,Wunderground v.1.15,2015-07-30 07:47:00,
2015-07-30 00:48:00,75.0,45.5,29.96,NW,326,3.0,5.0,35,0.00,,,0.00,0,Wunderground v.1.15,2015-07-30 07:48:00,
2015-07-30 00:49:00,75.0,45.5,29.96,NNW,346,6.0,6.0,35,0.00,,,0.00,0,Wunderground v.1.15,2015-07-30 07:49:00,
2015-07-30 00:50:00,74.9,45.4,29.96,NNW,347,3.0,4.0,35,0.00,,,0.00,0,Wunderground v.1.15,2015-07-30 07:50:00,
2015-07-30 00:52:00,75.5,45.9,29.96,NNW,337,5.0,6.0,35,0.00,,,0.00,0,Wunderground v.1.15,2015-07-30 07:52:00,
2015-07-30 00:55:00,74.8,45.3,29.96,NNW,343,6.0,7.0,35,0.00,,,0.00,0,Wunderground v.1.15,2015-07-30 07:55:00,
2015-07-30 00:58:00,74.8,45.3,29.96,NW,309,6.0,7.0,35,0.00,,,0.00,0,Wunderground v.1.15,2015-07-30 07:58:00,
2015-07-30 01:00:00,75.2,45.7,29.96,NW,325,3.0,4.0,35,0.00,,,0.00,0,Wunderground v.1.15,2015-07-30 08:00:00,
2015-07-30 01:05:00,74.7,45.2,29.96,NNW,327,3.0,4.0,35,0.00,,,0.00,0,Wunderground v.1.15,2015-07-30 08:05:00,
2015-07-30 01:07:00,74.7,45.2,29.97,NNW,333,2.0,4.0,35,0.00,,,0.00,0,Wunderground v.1.15,2015-07-30 08:07:00,
2015-07-30 01:09:00,74.6,45.1,29.96,NNW,332,6.0,6.0,35,0.00,,,0.00,0,Wunderground v.1.15,2015-07-30 08:09:00,
2015-07-30 01:11:00,74.9,45.4,29.96,NNW,346,7.0,7.0,35,0.00,,,0.00,0,Wunderground v.1.15,2015-07-30 08:11:00,
2015-07-30 01:13:00,74.4,45.7,29.96,NNW,340,7.0,7.0,36,0.00,,,0.00,0,Wunderground v.1.15,2015-07-30 08:13:00,
2015-07-30 01:14:00,74.4,45.0,29.96,NNW,344,3.0,7.0,35,0.00,,,0.00,0,Wunderground v.1.15,2015-07-30 08:14:00,
2015-07-30 01:15:00,74.4,45.7,29.96,NNW,344,2.0,4.0,36,0.00,,,0.00,0,Wunderground v.1.15,2015-07-30 08:15:00,
2015-07-30 01:16:00,74.8,45.3,29.96,NNW,343,5.0,7.0,35,0.00,,,0.00,0,Wunderground v.1.15,2015-07-30 08:16:00,
2015-07-30 01:17:00,74.3,45.6,29.96,NNW,327,3.0,6.0,36,0.00,,,0.00,0,Wunderground v.1.15,2015-07-30 08:17:00,
2015-07-30 01:18:00,74.2,45.5,29.96,NNW,330,5.0,6.0,36,0.00,,,0.00,0,Wunderground v.1.15,2015-07-30 08:18:00,
2015-07-30 01:20:00,74.1,45.4,29.96,NNW,331,5.0,6.0,36,0.00,,,0.00,0,Wunderground v.1.15,2015-07-30 08:20:00,
2015-07-30 01:21:00,74.1,45.4,29.96,NW,306,5.0,6.0,36,0.00,,,0.00,0,Wunderground v.1.15,2015-07-30 08:21:00,
2015-07-30 01:22:00,74.0,45.3,29.96,NW,321,3.0,6.0,36,0.00,,,0.00,0,Wunderground v.1.15,2015-07-30 08:22:00,
2015-07-30 01:23:00,74.0,45.3,29.96,North,355,8.0,8.0,36,0.00,,,0.00,0,Wunderground v.1.15,2015-07-30 08:23:00,
2015-07-30 01:24:00,74.0,46.1,29.96,NNW,342,3.0,8.0,37,0.00,,,0.00,0,Wunderground v.1.15,2015-07-30 08:24:00,
2015-07-30 01:26:00,74.7,45.2,29.96,NNW,331,1.0,4.0,35,0.00,,,0.00,0,Wunderground v.1.15,2015-07-30 08:26:00,
2015-07-30 01:28:00,73.9,46.0,29.96,NW,318,6.0,6.0,37,0.00,,,0.00,0,Wunderground v.1.15,2015-07-30 08:28:00,
2015-07-30 01:29:00,73.8,45.9,29.96,North,355,7.0,7.0,37,0.00,,,0.00,0,Wunderground v.1.15,2015-07-30 08:29:00,
2015-07-30 01:30:00,73.7,45.8,29.96,NW,321,4.0,7.0,37,0.00,,,0.00,0,Wunderground v.1.15,2015-07-30 08:30:00,
2015-07-30 01:31:00,73.7,45.8,29.96,NNW,336,7.0,7.0,37,0.00,,,0.00,0,Wunderground v.1.15,2015-07-30 08:31:00,
2015-07-30 01:32:00,74.5,45.0,29.96,NNW,329,4.0,6.0,35,0.00,,,0.00,0,Wunderground v.1.15,2015-07-30 08:32:00,
2015-07-30 01:33:00,73.6,46.4,29.96,NW,316,5.0,7.0,38,0.00,,,0.00,0,Wunderground v.1.15,2015-07-30 08:33:00,
2015-07-30 01:35:00,73.6,46.4,29.96,NW,311,4.0,7.0,38,0.00,,,0.00,0,Wunderground v.1.15,2015-07-30 08:35:00,
2015-07-30 01:36:00,73.5,45.6,29.96,NW,307,8.0,8.0,37,0.00,,,0.00,0,Wunderground v.1.15,2015-07-30 08:36:00,
2015-07-30 01:37:00,73.5,46.3,29.96,NW,325,4.0,8.0,38,0.00,,,0.00,0,Wunderground v.1.15,2015-07-30 08:37:00,
2015-07-30 01:38:00,73.4,46.2,29.96,NW,311,3.0,6.0,38,0.00,,,0.00,0,Wunderground v.1.15,2015-07-30 08:38:00,
2015-07-30 01:39:00,74.2,45.5,29.96,NW,321,4.0,6.0,36,0.00,,,0.00,0,Wunderground v.1.15,2015-07-30 08:39:00,
2015-07-30 01:40:00,73.3,46.2,29.96,North,349,4.0,6.0,38,0.00,,,0.00,0,Wunderground v.1.15,2015-07-30 08:40:00,
2015-07-30 01:41:00,73.3,46.2,29.96,NW,323,8.0,8.0,38,0.00,,,0.00,0,Wunderground v.1.15,2015-07-30 08:41:00,
2015-07-30 01:42:00,73.3,46.2,29.96,NNW,336,5.0,8.0,38,0.00,,,0.00,0,Wunderground v.1.15,2015-07-30 08:42:00,
2015-07-30 01:43:00,73.3,46.2,29.96,NW,320,4.0,8.0,38,0.00,,,0.00,0,Wunderground v.1.15,2015-07-30 08:43:00,
2015-07-30 01:44:00,73.3,46.2,29.96,NW,315,4.0,8.0,38,0.00,,,0.00,0,Wunderground v.1.15,2015-07-30 08:44:00,
2015-07-30 01:46:00,73.9,46.0,29.96,NNW,330,4.0,9.0,37,0.00,,,0.00,,weatherlink.com 1.10,2015-07-30 08:46:00,
2015-07-30 01:47:00,73.3,46.2,29.96,NW,317,5.0,8.0,38,0.00,,,0.00,0,Wunderground v.1.15,2015-07-30 08:47:00,
2015-07-30 01:48:00,73.2,46.1,29.96,NNW,332,4.0,5.0,38,0.00,,,0.00,0,Wunderground v.1.15,2015-07-30 08:48:00,
2015-07-30 01:49:00,73.2,46.1,29.96,NNW,345,4.0,5.0,38,0.00,,,0.00,0,Wunderground v.1.15,2015-07-30 08:49:00,
2015-07-30 01:50:00,73.2,46.1,29.96,NNW,327,6.0,6.0,38,0.00,,,0.00,0,Wunderground v.1.15,2015-07-30 08:50:00,
2015-07-30 01:51:00,73.2,46.1,29.96,NW,305,6.0,6.0,38,0.00,,,0.00,0,Wunderground v.1.15,2015-07-30 08:51:00,
2015-07-30 01:53:00,73.1,46.0,29.96,NW,307,5.0,9.0,38,0.00,,,0.00,0,Wunderground v.1.15,2015-07-30 08:53:00,
2015-07-30 01:54:00,73.1,46.0,29.96,NW,321,2.0,9.0,38,0.00,,,0.00,0,Wunderground v.1.15,2015-07-30 08:54:00,
2015-07-30 01:55:00,73.1,46.0,29.96,NNW,329,2.0,9.0,38,0.00,,,0.00,0,Wunderground v.1.15,2015-07-30 08:55:00,
2015-07-30 01:56:00,73.0,45.9,29.96,NNW,346,4.0,9.0,38,0.00,,,0.00,0,Wunderground v.1.15,2015-07-30 08:56:00,
2015-07-30 01:57:00,73.0,46.6,29.96,NNW,338,4.0,9.0,39,0.00,,,0.00,0,Wunderground v.1.15,2015-07-30 08:57:00,
2015-07-30 01:58:00,73.0,46.6,29.96,NNW,340,3.0,4.0,39,0.00,,,0.00,0,Wunderground v.1.15,2015-07-30 08:58:00,
2015-07-30 02:01:00,73.3,46.0,29.96,NNW,340,5.0,10.0,38,0.00,,,0.00,,weatherlink.com 1.10,2015-07-30 09:01:00,
2015-07-30 02:03:00,72.9,46.5,29.96,NNW,337,4.0,4.0,39,0.00,,,0.00,0,Wunderground v.1.15,2015-07-30 09:03:00,
2015-07-30 02:04:00,72.8,46.4,29.96,North,350,3.0,4.0,39,0.00,,,0.00,0,Wunderground v.1.15,2015-07-30 09:04:00,
2015-07-30 02:05:00,72.8,46.4,29.96,North,355,2.0,5.0,39,0.00,,,0.00,0,Wunderground v.1.15,2015-07-30 09:05:00,
2015-07-30 02:06:00,72.7,46.3,29.96,NNW,338,5.0,6.0,39,0.00,,,0.00,0,Wunderground v.1.15,2015-07-30 09:06:00,
2015-07-30 02:07:00,72.7,46.3,29.96,NNW,338,1.0,6.0,39,0.00,,,0.00,0,Wunderground v.1.15,2015-07-30 09:07:00,
2015-07-30 02:08:00,72.6,46.2,29.96,NNW,338,4.0,6.0,39,0.00,,,0.00,0,Wunderground v.1.15,2015-07-30 09:08:00,
2015-07-30 02:09:00,72.6,46.2,29.96,NNW,340,0.0,6.0,39,0.00,,,0.00,0,Wunderground v.1.15,2015-07-30 09:09:00,
2015-07-30 02:10:00,72.6,46.9,29.96,NNW,339,0.0,6.0,40,0.00,,,0.00,0,Wunderground v.1.15,2015-07-30 09:10:00,
2015-07-30 02:11:00,72.5,46.8,29.96,NW,320,6.0,6.0,40,0.00,,,0.00,0,Wunderground v.1.15,2015-07-30 09:11:00,
2015-07-30 02:12:00,72.5,46.8,29.96,NW,321,4.0,6.0,40,0.00,,,0.00,0,Wunderground v.1.15,2015-07-30 09:12:00,
2015-07-30 02:13:00,72.4,46.7,29.97,NW,326,3.0,3.0,40,0.00,,,0.00,0,Wunderground v.1.15,2015-07-30 09:13:00,
2015-07-30 02:14:00,72.4,46.7,29.97,NNW,336,4.0,8.0,40,0.00,,,0.00,0,Wunderground v.1.15,2015-07-30 09:14:00,
2015-07-30 02:15:00,72.4,46.7,29.97,NNW,340,3.0,8.0,40,0.00,,,0.00,0,Wunderground v.1.15,2015-07-30 09:15:00,
2015-07-30 02:16:00,73.0,46.0,29.96,NNW,346,3.0,10.0,38,0.00,,,0.00,,weatherlink.com 1.10,2015-07-30 09:16:00,
2015-07-30 02:24:00,72.8,46.4,29.96,North,355,5.0,5.0,39,0.00,,,0.00,0,Wunderground v.1.15,2015-07-30 09:24:00,
2015-07-30 02:27:00,72.1,46.4,29.97,NNW,336,3.0,5.0,40,0.00,,,0.00,0,Wunderground v.1.15,2015-07-30 09:27:00,
2015-07-30 02:28:00,72.0,46.3,29.97,NNW,336,3.0,5.0,40,0.00,,,0.00,0,Wunderground v.1.15,2015-07-30 09:28:00,
2015-07-30 02:29:00,72.6,46.9,29.96,NNW,339,2.0,6.0,40,0.00,,,0.00,0,Wunderground v.1.15,2015-07-30 09:29:00,
2015-07-30 02:30:00,71.9,46.9,29.97,NNW,346,2.0,6.0,41,0.00,,,0.00,0,Wunderground v.1.15,2015-07-30 09:30:00,
2015-07-30 02:31:00,71.8,46.8,29.97,NNW,346,3.0,6.0,41,0.00,,,0.00,0,Wunderground v.1.15,2015-07-30 09:31:00,
2015-07-30 02:32:00,71.7,46.7,29.97,NNW,345,3.0,6.0,41,0.00,,,0.00,0,Wunderground v.1.15,2015-07-30 09:32:00,
2015-07-30 02:33:00,71.7,46.7,29.96,NNW,345,6.0,6.0,41,0.00,,,0.00,0,Wunderground v.1.15,2015-07-30 09:33:00,
2015-07-30 02:34:00,72.4,46.7,29.97,NNW,336,0.0,8.0,40,0.00,,,0.00,0,Wunderground v.1.15,2015-07-30 09:34:00,
2015-07-30 02:35:00,71.6,46.6,29.96,NNW,338,6.0,6.0,41,0.00,,,0.00,0,Wunderground v.1.15,2015-07-30 09:35:00,
2015-07-30 02:36:00,71.6,47.3,29.96,NNW,340,3.0,6.0,42,0.00,,,0.00,0,Wunderground v.1.15,2015-07-30 09:36:00,
2015-07-30 02:37:00,71.6,47.3,29.96,NNW,338,3.0,6.0,42,0.00,,,0.00,0,Wunderground v.1.15,2015-07-30 09:37:00,
2015-07-30 02:38:00,71.5,47.2,29.97,NNW,338,3.0,6.0,42,0.00,,,0.00,0,Wunderground v.1.15,2015-07-30 09:38:00,
2015-07-30 02:39:00,72.2,46.5,29.97,NNW,340,3.0,8.0,40,0.00,,,0.00,0,Wunderground v.1.15,2015-07-30 09:39:00,
2015-07-30 02:40:00,71.4,47.1,29.96,NNW,338,0.0,6.0,42,0.00,,,0.00,0,Wunderground v.1.15,2015-07-30 09:40:00,
2015-07-30 02:41:00,71.4,47.1,29.97,NNW,338,0.0,6.0,42,0.00,,,0.00,0,Wunderground v.1.15,2015-07-30 09:41:00,
2015-07-30 02:42:00,71.4,47.1,29.97,NNW,338,0.0,6.0,42,0.00,,,0.00,0,Wunderground v.1.15,2015-07-30 09:42:00,
2015-07-30 02:43:00,71.3,47.0,29.97,NNW,338,0.0,2.0,42,0.00,,,0.00,0,Wunderground v.1.15,2015-07-30 09:43:00,
2015-07-30 02:44:00,72.1,47.1,29.97,NNW,336,4.0,5.0,41,0.00,,,0.00,0,Wunderground v.1.15,2015-07-30 09:44:00,
2015-07-30 02:45:00,71.2,47.6,29.97,NNW,338,2.0,3.0,43,0.00,,,0.00,0,Wunderground v.1.15,2015-07-30 09:45:00,
2015-07-30 02:46:00,71.3,47.6,29.97,NNW,338,1.0,5.0,43,0.00,,,0.00,0,Wunderground v.1.15,2015-07-30 09:46:00,
2015-07-30 02:47:00,71.2,47.6,29.97,NNW,338,1.0,5.0,43,0.00,,,0.00,0,Wunderground v.1.15,2015-07-30 09:47:00,
2015-07-30 02:50:00,71.1,47.5,29.97,NNW,338,2.0,5.0,43,0.00,,,0.00,0,Wunderground v.1.15,2015-07-30 09:50:00,
2015-07-30 02:51:00,71.7,46.7,29.97,NNW,345,3.0,6.0,41,0.00,,,0.00,0,Wunderground v.1.15,2015-07-30 09:51:00,
2015-07-30 02:52:00,71.0,47.4,29.97,NNW,338,2.0,5.0,43,0.00,,,0.00,0,Wunderground v.1.15,2015-07-30 09:52:00,
2015-07-30 02:55:00,70.9,47.9,29.97,NNW,338,0.0,4.0,44,0.00,,,0.00,0,Wunderground v.1.15,2015-07-30 09:55:00,
2015-07-30 02:56:00,70.9,47.9,29.97,NNW,338,2.0,4.0,44,0.00,,,0.00,0,Wunderground v.1.15,2015-07-30 09:56:00,
2015-07-30 02:57:00,70.8,47.8,29.97,NNW,338,0.0,4.0,44,0.00,,,0.00,0,Wunderground v.1.15,2015-07-30 09:57:00,
2015-07-30 02:58:00,70.8,47.8,29.97,NNW,338,2.0,4.0,44,0.00,,,0.00,0,Wunderground v.1.15,2015-07-30 09:58:00,
2015-07-30 02:59:00,70.8,47.8,29.97,NNW,338,3.0,4.0,44,0.00,,,0.00,0,Wunderground v.1.15,2015-07-30 09:59:00,
2015-07-30 03:02:00,71.4,47.1,29.97,NNW,338,0.0,6.0,42,0.00,,,0.00,0,Wunderground v.1.15,2015-07-30 10:02:00,
2015-07-30 03:06:00,70.5,48.1,29.97,NNW,338,3.0,4.0,45,0.00,,,0.00,0,Wunderground v.1.15,2015-07-30 10:06:00,
2015-07-30 03:08:00,70.5,48.1,29.97,NNW,338,0.0,4.0,45,0.00,,,0.00,0,Wunderground v.1.15,2015-07-30 10:08:00,
2015-07-30 03:10:00,70.4,48.0,29.97,NNW,338,0.0,2.0,45,0.00,,,0.00,0,Wunderground v.1.15,2015-07-30 10:10:00,
2015-07-30 03:11:00,70.4,48.0,29.97,NNW,340,3.0,6.0,45,0.00,,,0.00,0,Wunderground v.1.15,2015-07-30 10:11:00,
2015-07-30 03:12:00,71.0,47.4,29.97,NNW,338,0.0,5.0,43,0.00,,,0.00,0,Wunderground v.1.15,2015-07-30 10:12:00,
2015-07-30 03:13:00,70.2,48.4,29.97,NNW,341,0.0,6.0,46,0.00,,,0.00,0,Wunderground v.1.15,2015-07-30 10:13:00,
2015-07-30 03:14:00,70.2,48.4,29.97,NNW,341,3.0,6.0,46,0.00,,,0.00,0,Wunderground v.1.15,2015-07-30 10:14:00,
2015-07-30 03:15:00,70.1,48.4,29.97,NNW,341,0.0,6.0,46,0.00,,,0.00,0,Wunderground v.1.15,2015-07-30 10:15:00,
2015-07-30 03:16:00,70.1,48.4,29.97,NNW,341,0.0,6.0,46,0.00,,,0.00,0,Wunderground v.1.15,2015-07-30 10:16:00,
2015-07-30 03:17:00,70.8,47.8,29.97,NNW,338,0.0,4.0,44,0.00,,,0.00,0,Wunderground v.1.15,2015-07-30 10:17:00,
2015-07-30 03:25:00,70.6,47.6,29.97,NNW,338,2.0,3.0,44,0.00,,,0.00,0,Wunderground v.1.15,2015-07-30 10:25:00,
2015-07-30 03:27:00,69.7,48.6,29.97,North,5,0.0,4.0,47,0.00,,,0.00,0,Wunderground v.1.15,2015-07-30 10:27:00,
2015-07-30 03:28:00,69.7,48.6,29.97,North,5,0.0,4.0,47,0.00,,,0.00,0,Wunderground v.1.15,2015-07-30 10:28:00,
2015-07-30 03:29:00,69.7,48.6,29.97,North,5,1.0,4.0,47,0.00,,,0.00,0,Wunderground v.1.15,2015-07-30 10:29:00,
2015-07-30 03:30:00,70.4,48.0,29.97,NNW,340,5.0,6.0,45,0.00,,,0.00,0,Wunderground v.1.15,2015-07-30 10:30:00,
2015-07-30 03:31:00,69.6,48.5,29.97,North,5,2.0,4.0,47,0.00,,,0.00,0,Wunderground v.1.15,2015-07-30 10:31:00,
2015-07-30 03:32:00,69.6,48.5,29.97,North,5,3.0,4.0,47,0.00,,,0.00,0,Wunderground v.1.15,2015-07-30 10:32:00,
2015-07-30 03:33:00,69.5,48.4,29.97,North,5,2.0,4.0,47,0.00,,,0.00,0,Wunderground v.1.15,2015-07-30 10:33:00,
2015-07-30 03:34:00,69.5,48.4,29.97,North,5,0.0,4.0,47,0.00,,,0.00,0,Wunderground v.1.15,2015-07-30 10:34:00,
2015-07-30 03:35:00,70.1,48.4,29.97,NNW,341,0.0,6.0,46,0.00,,,0.00,0,Wunderground v.1.15,2015-07-30 10:35:00,
2015-07-30 03:36:00,69.5,48.4,29.97,North,5,2.0,5.0,47,0.00,,,0.00,0,Wunderground v.1.15,2015-07-30 10:36:00,
2015-07-30 03:37:00,69.4,48.3,29.97,North,5,2.0,5.0,47,0.00,,,0.00,0,Wunderground v.1.15,2015-07-30 10:37:00,
2015-07-30 03:38:00,69.4,48.3,29.97,North,5,0.0,5.0,47,0.00,,,0.00,0,Wunderground v.1.15,2015-07-30 10:38:00,
2015-07-30 03:39:00,69.4,48.9,29.97,North,5,0.0,5.0,48,0.00,,,0.00,0,Wunderground v.1.15,2015-07-30 10:39:00,
2015-07-30 03:40:00,69.9,48.7,29.97,North,5,3.0,4.0,47,0.00,,,0.00,0,Wunderground v.1.15,2015-07-30 10:40:00,
2015-07-30 03:41:00,69.4,48.9,29.97,North,5,3.0,5.0,48,0.00,,,0.00,0,Wunderground v.1.15,2015-07-30 10:41:00,
2015-07-30 03:42:00,69.3,48.8,29.97,North,5,0.0,5.0,48,0.00,,,0.00,0,Wunderground v.1.15,2015-07-30 10:42:00,
2015-07-30 03:43:00,69.3,48.8,29.97,North,5,0.0,5.0,48,0.00,,,0.00,0,Wunderground v.1.15,2015-07-30 10:43:00,
2015-07-30 03:44:00,69.3,48.8,29.97,North,5,0.0,5.0,48,0.00,,,0.00,0,Wunderground v.1.15,2015-07-30 10:44:00,
2015-07-30 03:45:00,69.3,48.8,29.97,North,5,0.0,5.0,48,0.00,,,0.00,0,Wunderground v.1.15,2015-07-30 10:45:00,
2015-07-30 03:46:00,69.2,48.7,29.97,North,5,0.0,5.0,48,0.00,,,0.00,0,Wunderground v.1.15,2015-07-30 10:46:00,
2015-07-30 03:47:00,69.2,48.7,29.97,North,5,0.0,5.0,48,0.00,,,0.00,0,Wunderground v.1.15,2015-07-30 10:47:00,
2015-07-30 03:48:00,69.2,48.7,29.97,North,5,3.0,5.0,48,0.00,,,0.00,0,Wunderground v.1.15,2015-07-30 10:48:00,
2015-07-30 03:49:00,69.1,48.6,29.97,North,5,0.0,5.0,48,0.00,,,0.00,0,Wunderground v.1.15,2015-07-30 10:49:00,
2015-07-30 03:50:00,69.1,49.1,29.97,North,5,0.0,1.0,49,0.00,,,0.00,0,Wunderground v.1.15,2015-07-30 10:50:00,
2015-07-30 03:51:00,69.1,49.1,29.97,North,5,0.0,1.0,49,0.00,,,0.00,0,Wunderground v.1.15,2015-07-30 10:51:00,
2015-07-30 03:52:00,69.0,49.0,29.97,North,5,0.0,1.0,49,0.00,,,0.00,0,Wunderground v.1.15,2015-07-30 10:52:00,
2015-07-30 03:53:00,69.0,49.0,29.97,North,5,0.0,1.0,49,0.00,,,0.00,0,Wunderground v.1.15,2015-07-30 10:53:00,
2015-07-30 03:54:00,69.0,49.0,29.97,North,5,0.0,1.0,49,0.00,,,0.00,0,Wunderground v.1.15,2015-07-30 10:54:00,
2015-07-30 03:55:00,68.9,48.9,29.97,North,5,0.0,1.0,49,0.00,,,0.00,0,Wunderground v.1.15,2015-07-30 10:55:00,
2015-07-30 03:56:00,68.9,48.9,29.97,North,5,3.0,3.0,49,0.00,,,0.00,0,Wunderground v.1.15,2015-07-30 10:56:00,
2015-07-30 03:57:00,68.9,48.9,29.97,North,5,2.0,3.0,49,0.00,,,0.00,0,Wunderground v.1.15,2015-07-30 10:57:00,
2015-07-30 03:58:00,68.8,49.4,29.97,North,5,2.0,3.0,50,0.00,,,0.00,0,Wunderground v.1.15,2015-07-30 10:58:00,
2015-07-30 03:59:00,68.8,49.4,29.97,North,5,2.0,3.0,50,0.00,,,0.00,0,Wunderground v.1.15,2015-07-30 10:59:00,
2015-07-30 04:00:00,69.4,48.9,29.97,North,5,4.0,5.0,48,0.00,,,0.00,0,Wunderground v.1.15,2015-07-30 11:00:00,
2015-07-30 04:05:00,68.2,48.8,29.97,North,5,0.0,3.0,50,0.00,,,0.00,0,Wunderground v.1.15,2015-07-30 11:05:00,
2015-07-30 04:06:00,69.2,48.7,29.97,North,5,0.0,5.0,48,0.00,,,0.00,0,Wunderground v.1.15,2015-07-30 11:06:00,
2015-07-30 04:07:00,68.0,50.2,29.97,North,5,0.0,3.0,53,0.00,,,0.00,0,Wunderground v.1.15,2015-07-30 11:07:00,
2015-07-30 04:08:00,68.0,50.2,29.97,North,5,0.0,3.0,53,0.00,,,0.00,0,Wunderground v.1.15,2015-07-30 11:08:00,
2015-07-30 04:10:00,67.8,49.5,29.97,North,5,0.0,1.0,52,0.00,,,0.00,0,Wunderground v.1.15,2015-07-30 11:10:00,
2015-07-30 04:11:00,69.1,49.1,29.97,North,5,0.0,1.0,49,0.00,,,0.00,0,Wunderground v.1.15,2015-07-30 11:11:00,
2015-07-30 04:12:00,67.7,49.9,29.97,North,5,0.0,1.0,53,0.00,,,0.00,0,Wunderground v.1.15,2015-07-30 11:12:00,
2015-07-30 04:13:00,67.7,49.9,29.97,North,5,0.0,1.0,53,0.00,,,0.00,0,Wunderground v.1.15,2015-07-30 11:13:00,
2015-07-30 04:15:00,67.5,49.8,29.97,North,5,0.0,1.0,53,0.00,,,0.00,0,Wunderground v.1.15,2015-07-30 11:15:00,
2015-07-30 04:16:00,68.9,48.9,29.97,North,5,2.0,2.0,49,0.00,,,0.00,0,Wunderground v.1.15,2015-07-30 11:16:00,
2015-07-30 04:19:00,67.2,49.5,29.97,North,5,0.0,1.0,53,0.00,,,0.00,0,Wunderground v.1.15,2015-07-30 11:19:00,
2015-07-30 04:20:00,67.2,50.5,29.97,North,5,0.0,0.0,55,0.00,,,0.00,0,Wunderground v.1.15,2015-07-30 11:20:00,
2015-07-30 04:21:00,67.1,49.9,29.97,North,5,0.0,0.0,54,0.00,,,0.00,0,Wunderground v.1.15,2015-07-30 11:21:00,
2015-07-30 04:24:00,68.6,49.2,29.97,North,5,0.0,3.0,50,0.00,,,0.00,0,Wunderground v.1.15,2015-07-30 11:24:00,
2015-07-30 04:27:00,66.9,50.2,29.97,North,5,0.0,0.0,55,0.00,,,0.00,0,Wunderground v.1.15,2015-07-30 11:27:00,
2015-07-30 04:28:00,66.9,50.2,29.97,North,5,0.0,0.0,55,0.00,,,0.00,0,Wunderground v.1.15,2015-07-30 11:28:00,
2015-07-30 04:29:00,67.8,49.5,29.97,North,5,0.0,1.0,52,0.00,,,0.00,0,Wunderground v.1.15,2015-07-30 11:29:00,
2015-07-30 04:30:00,66.8,50.1,29.97,North,5,0.0,0.0,55,0.00,,,0.00,0,Wunderground v.1.15,2015-07-30 11:30:00,
2015-07-30 04:31:00,66.7,50.0,29.97,North,5,0.0,0.0,55,0.00,,,0.00,0,Wunderground v.1.15,2015-07-30 11:31:00,
2015-07-30 04:32:00,66.6,50.4,29.97,North,5,0.0,0.0,56,0.00,,,0.00,0,Wunderground v.1.15,2015-07-30 11:32:00,
2015-07-30 04:33:00,66.5,50.3,29.97,North,5,0.0,0.0,56,0.00,,,0.00,0,Wunderground v.1.15,2015-07-30 11:33:00,
2015-07-30 04:34:00,66.5,50.3,29.97,North,5,0.0,0.0,56,0.00,,,0.00,0,Wunderground v.1.15,2015-07-30 11:34:00,
2015-07-30 04:35:00,67.5,49.8,29.97,North,5,0.0,1.0,53,0.00,,,0.00,0,Wunderground v.1.15,2015-07-30 11:35:00,
2015-07-30 04:36:00,66.3,51.1,29.97,North,5,0.0,0.0,58,0.00,,,0.00,0,Wunderground v.1.15,2015-07-30 11:36:00,
2015-07-30 04:37:00,66.2,50.5,29.97,North,5,0.0,0.0,57,0.00,,,0.00,0,Wunderground v.1.15,2015-07-30 11:37:00,
2015-07-30 04:38:00,66.1,50.4,29.97,North,5,0.0,0.0,57,0.00,,,0.00,0,Wunderground v.1.15,2015-07-30 11:38:00,
2015-07-30 04:39:00,66.1,50.4,29.97,North,5,0.0,0.0,57,0.00,,,0.00,0,Wunderground v.1.15,2015-07-30 11:39:00,
2015-07-30 04:40:00,67.2,50.5,29.97,North,5,0.0,0.0,55,0.00,,,0.00,0,Wunderground v.1.15,2015-07-30 11:40:00,
2015-07-30 04:41:00,65.9,50.2,29.97,North,5,0.0,0.0,57,0.00,,,0.00,0,Wunderground v.1.15,2015-07-30 11:41:00,
2015-07-30 04:42:00,65.9,50.7,29.97,North,5,0.0,0.0,58,0.00,,,0.00,0,Wunderground v.1.15,2015-07-30 11:42:00,
2015-07-30 04:43:00,65.8,51.1,29.97,North,5,0.0,0.0,59,0.00,,,0.00,0,Wunderground v.1.15,2015-07-30 11:43:00,
2015-07-30 04:44:00,65.8,51.1,29.97,North,5,0.0,0.0,59,0.00,,,0.00,0,Wunderground v.1.15,2015-07-30 11:44:00,
2015-07-30 04:45:00,65.8,51.1,29.97,North,5,0.0,0.0,59,0.00,,,0.00,0,Wunderground v.1.15,2015-07-30 11:45:00,
2015-07-30 04:46:00,65.7,51.0,29.97,North,5,0.0,0.0,59,0.00,,,0.00,0,Wunderground v.1.15,2015-07-30 11:46:00,
2015-07-30 04:47:00,65.7,51.0,29.97,North,5,0.0,0.0,59,0.00,,,0.00,0,Wunderground v.1.15,2015-07-30 11:47:00,
2015-07-30 04:48:00,65.6,50.9,29.97,North,5,0.0,0.0,59,0.00,,,0.00,0,Wunderground v.1.15,2015-07-30 11:48:00,
2015-07-30 04:50:00,65.6,50.9,29.97,North,5,0.0,0.0,59,0.00,,,0.00,0,Wunderground v.1.15,2015-07-30 11:50:00,
2015-07-30 04:51:00,65.5,50.8,29.97,North,5,0.0,0.0,59,0.00,,,0.00,0,Wunderground v.1.15,2015-07-30 11:51:00,
2015-07-30 04:52:00,65.4,50.7,29.97,North,5,0.0,0.0,59,0.00,,,0.00,0,Wunderground v.1.15,2015-07-30 11:52:00,
2015-07-30 04:53:00,65.4,50.7,29.97,North,5,0.0,0.0,59,0.00,,,0.00,0,Wunderground v.1.15,2015-07-30 11:53:00,
2015-07-30 04:54:00,65.3,51.1,29.97,North,5,0.0,0.0,60,0.00,,,0.00,0,Wunderground v.1.15,2015-07-30 11:54:00,
2015-07-30 04:58:00,64.9,50.7,29.97,North,5,0.0,0.0,60,0.00,,,0.00,0,Wunderground v.1.15,2015-07-30 11:58:00,
2015-07-30 05:02:00,65.9,50.7,29.97,North,5,0.0,0.0,58,0.00,,,0.00,0,Wunderground v.1.15,2015-07-30 12:02:00,
2015-07-30 05:07:00,65.6,50.9,29.97,North,5,0.0,0.0,59,0.00,,,0.00,0,Wunderground v.1.15,2015-07-30 12:07:00,
2015-07-30 05:08:00,64.1,50.8,29.97,North,5,0.0,1.0,62,0.00,,,0.00,0,Wunderground v.1.15,2015-07-30 12:08:00,
2015-07-30 05:11:00,64.0,51.1,29.97,North,5,0.0,0.0,63,0.00,,,0.00,0,Wunderground v.1.15,2015-07-30 12:11:00,
2015-07-30 05:12:00,65.5,50.8,29.97,North,5,0.0,0.0,59,0.00,,,0.00,0,Wunderground v.1.15,2015-07-30 12:12:00,
2015-07-30 05:17:00,65.0,50.3,29.97,North,5,0.0,0.0,59,0.00,,,0.00,0,Wunderground v.1.15,2015-07-30 12:17:00,
2015-07-30 05:18:00,63.8,51.0,29.97,North,5,0.0,0.0,63,0.00,,,0.00,0,Wunderground v.1.15,2015-07-30 12:18:00,
2015-07-30 05:19:00,63.7,50.9,29.97,North,5,0.0,0.0,63,0.00,,,0.00,0,Wunderground v.1.15,2015-07-30 12:19:00,
2015-07-30 05:22:00,63.7,50.9,29.97,North,5,0.0,2.0,63,0.00,,,0.00,0,Wunderground v.1.15,2015-07-30 12:22:00,
2015-07-30 05:25:00,64.8,50.6,29.97,North,5,0.0,0.0,60,0.00,,,0.00,0,Wunderground v.1.15,2015-07-30 12:25:00,
2015-07-30 05:28:00,63.6,50.8,29.97,NNW,342,4.0,5.0,63,0.00,,,0.00,0,Wunderground v.1.15,2015-07-30 12:28:00,
2015-07-30 05:29:00,63.6,50.8,29.97,NNW,343,3.0,5.0,63,0.00,,,0.00,0,Wunderground v.1.15,2015-07-30 12:29:00,
2015-07-30 05:30:00,64.1,50.8,29.97,North,5,0.0,0.0,62,0.00,,,0.00,0,Wunderground v.1.15,2015-07-30 12:30:00,
2015-07-30 05:31:00,63.8,51.0,29.97,NNW,333,4.0,7.0,63,0.00,,,0.00,0,Wunderground v.1.15,2015-07-30 12:31:00,
2015-07-30 05:32:00,64.0,51.1,29.98,NNW,334,2.0,7.0,63,0.00,,,0.00,0,Wunderground v.1.15,2015-07-30 12:32:00,
2015-07-30 05:33:00,64.1,50.8,29.98,NNW,334,3.0,7.0,62,0.00,,,0.00,5,Wunderground v.1.15,2015-07-30 12:33:00,
2015-07-30 05:34:00,64.1,50.8,29.98,NNW,334,1.0,7.0,62,0.00,,,0.00,5,Wunderground v.1.15,2015-07-30 12:34:00,
2015-07-30 05:35:00,63.8,50.5,29.97,North,5,0.0,0.0,62,0.00,,,0.00,0,Wunderground v.1.15,2015-07-30 12:35:00,
2015-07-30 05:36:00,64.2,50.9,29.98,NNW,334,0.0,7.0,62,0.00,,,0.00,5,Wunderground v.1.15,2015-07-30 12:36:00,
2015-07-30 05:37:00,64.3,51.0,29.98,NNW,333,3.0,7.0,62,0.00,,,0.00,5,Wunderground v.1.15,2015-07-30 12:37:00,
2015-07-30 05:38:00,64.3,51.0,29.98,NNW,336,2.0,7.0,62,0.00,,,0.00,7,Wunderground v.1.15,2015-07-30 12:38:00,
2015-07-30 05:39:00,64.4,51.1,29.98,NNW,336,0.0,7.0,62,0.00,,,0.00,7,Wunderground v.1.15,2015-07-30 12:39:00,
2015-07-30 05:40:00,63.7,50.9,29.97,North,5,0.0,2.0,63,0.00,,,0.00,0,Wunderground v.1.15,2015-07-30 12:40:00,
2015-07-30 05:41:00,64.5,51.2,29.98,NNW,340,5.0,6.0,62,0.00,,,0.00,7,Wunderground v.1.15,2015-07-30 12:41:00,
2015-07-30 05:42:00,64.5,50.7,29.98,NNW,343,4.0,6.0,61,0.00,,,0.00,7,Wunderground v.1.15,2015-07-30 12:42:00,
2015-07-30 05:43:00,64.6,50.8,29.98,NNW,343,2.0,6.0,61,0.00,,,0.00,7,Wunderground v.1.15,2015-07-30 12:43:00,
2015-07-30 05:44:00,64.6,50.8,29.98,NNW,343,2.0,6.0,61,0.00,,,0.00,9,Wunderground v.1.15,2015-07-30 12:44:00,
2015-07-30 05:45:00,64.7,50.9,29.98,NNW,343,3.0,6.0,61,0.00,,,0.00,9,Wunderground v.1.15,2015-07-30 12:45:00,
2015-07-30 05:46:00,64.7,50.9,29.98,NNW,343,2.0,6.0,61,0.00,,,0.00,9,Wunderground v.1.15,2015-07-30 12:46:00,
2015-07-30 05:47:00,64.7,50.9,29.98,NNW,341,6.0,6.0,61,0.00,,,0.00,11,Wunderground v.1.15,2015-07-30 12:47:00,
2015-07-30 05:48:00,64.7,50.9,29.98,NNW,341,3.0,6.0,61,0.00,,,0.00,11,Wunderground v.1.15,2015-07-30 12:48:00,
2015-07-30 05:50:00,64.8,51.0,29.98,NNW,341,3.0,3.0,61,0.00,,,0.00,11,Wunderground v.1.15,2015-07-30 12:50:00,
2015-07-30 05:51:00,64.9,51.1,29.98,NNW,346,5.0,7.0,61,0.00,,,0.00,11,Wunderground v.1.15,2015-07-30 12:51:00,
2015-07-30 05:52:00,64.9,51.1,29.98,NNW,346,2.0,7.0,61,0.00,,,0.00,12,Wunderground v.1.15,2015-07-30 12:52:00,
2015-07-30 05:55:00,65.0,50.8,29.98,NNW,346,2.0,7.0,60,0.00,,,0.00,12,Wunderground v.1.15,2015-07-30 12:55:00,
2015-07-30 05:56:00,65.1,50.9,29.98,NNW,346,2.0,7.0,60,0.00,,,0.00,14,Wunderground v.1.15,2015-07-30 12:56:00,
2015-07-30 05:57:00,64.3,51.0,29.98,NNW,334,5.0,7.0,62,0.00,,,0.00,5,Wunderground v.1.15,2015-07-30 12:57:00,
2015-07-30 05:58:00,65.2,51.0,29.98,NNW,346,2.0,7.0,60,0.00,,,0.00,16,Wunderground v.1.15,2015-07-30 12:58:00,
2015-07-30 05:59:00,65.2,51.0,29.98,NNW,346,2.0,7.0,60,0.00,,,0.00,18,Wunderground v.1.15,2015-07-30 12:59:00,
2015-07-30 06:02:00,64.5,50.7,29.98,NNW,343,3.0,6.0,61,0.00,,,0.00,7,Wunderground v.1.15,2015-07-30 13:02:00,
2015-07-30 06:07:00,64.7,50.9,29.98,NNW,341,2.0,6.0,61,0.00,,,0.00,11,Wunderground v.1.15,2015-07-30 13:07:00,
2015-07-30 06:09:00,65.5,51.2,29.98,NNW,332,5.0,6.0,60,0.00,,,0.00,33,Wunderground v.1.15,2015-07-30 13:09:00,
2015-07-30 06:10:00,65.6,51.3,29.98,NNW,333,4.0,4.0,60,0.00,,,0.00,35,Wunderground v.1.15,2015-07-30 13:10:00,
2015-07-30 06:12:00,65.6,51.3,29.98,NNW,333,2.0,6.0,60,0.00,,,0.00,39,Wunderground v.1.15,2015-07-30 13:12:00,
2015-07-30 06:13:00,65.7,51.4,29.98,NNW,333,3.0,6.0,60,0.00,,,0.00,40,Wunderground v.1.15,2015-07-30 13:13:00,
2015-07-30 06:16:00,65.8,51.5,29.98,NNW,337,2.0,8.0,60,0.00,,,0.00,46,Wunderground v.1.15,2015-07-30 13:16:00,
2015-07-30 06:17:00,65.2,51.0,29.98,NNW,346,0.0,7.0,60,0.00,,,0.00,16,Wunderground v.1.15,2015-07-30 13:17:00,
2015-07-30 06:20:00,65.9,51.6,29.98,NNW,339,0.0,3.0,60,0.00,,,0.00,54,Wunderground v.1.15,2015-07-30 13:20:00,
2015-07-30 06:25:00,65.4,51.1,29.98,NNW,343,4.0,4.0,60,0.00,,,0.00,21,Wunderground v.1.15,2015-07-30 13:25:00,
2015-07-30 06:28:00,66.1,51.8,29.98,NNW,337,0.0,4.0,60,0.00,,,0.00,69,Wunderground v.1.15,2015-07-30 13:28:00,
2015-07-30 06:29:00,66.2,51.4,29.98,NNW,338,3.0,4.0,59,0.00,,,0.00,70,Wunderground v.1.15,2015-07-30 13:29:00,
2015-07-30 06:30:00,65.6,51.3,29.98,NNW,333,2.0,4.0,60,0.00,,,0.00,35,Wunderground v.1.15,2015-07-30 13:30:00,
2015-07-30 06:31:00,66.4,51.6,29.98,NNW,338,3.0,5.0,59,0.00,,,0.00,79,Wunderground v.1.15,2015-07-30 13:31:00,
2015-07-30 06:32:00,66.5,51.7,29.99,NNW,336,0.0,5.0,59,0.00,,,0.00,86,Wunderground v.1.15,2015-07-30 13:32:00,
2015-07-30 06:33:00,66.5,51.7,29.99,NNW,337,2.0,5.0,59,0.00,,,0.00,90,Wunderground v.1.15,2015-07-30 13:33:00,
2015-07-30 06:34:00,66.6,51.8,29.99,NNW,337,0.0,5.0,59,0.00,,,0.00,91,Wunderground v.1.15,2015-07-30 13:34:00,
2015-07-30 06:35:00,65.8,51.5,29.98,NNW,337,3.0,8.0,60,0.00,,,0.00,46,Wunderground v.1.15,2015-07-30 13:35:00,
2015-07-30 06:36:00,66.7,51.9,29.99,NNW,337,0.0,5.0,59,0.00,,,0.00,98,Wunderground v.1.15,2015-07-30 13:36:00,
2015-07-30 06:37:00,66.7,51.9,29.98,NNW,337,2.0,5.0,59,0.00,,,0.00,102,Wunderground v.1.15,2015-07-30 13:37:00,
2015-07-30 06:38:00,66.7,51.9,29.98,NNW,337,2.0,5.0,59,0.00,,,0.00,105,Wunderground v.1.15,2015-07-30 13:38:00,
2015-07-30 06:39:00,66.8,52.0,29.98,NNW,337,3.0,5.0,59,0.00,,,0.00,107,Wunderground v.1.15,2015-07-30 13:39:00,
2015-07-30 06:40:00,65.9,51.6,29.98,NNW,338,1.0,3.0,60,0.00,,,0.00,58,Wunderground v.1.15,2015-07-30 13:40:00,
2015-07-30 06:41:00,66.9,52.1,29.98,NNW,337,4.0,7.0,59,0.00,,,0.00,113,Wunderground v.1.15,2015-07-30 13:41:00,
2015-07-30 06:42:00,66.9,52.1,29.99,NNW,344,4.0,7.0,59,0.00,,,0.00,114,Wunderground v.1.15,2015-07-30 13:42:00,
2015-07-30 06:43:00,67.0,52.2,29.99,NNW,344,2.0,7.0,59,0.00,,,0.00,121,Wunderground v.1.15,2015-07-30 13:43:00,
2015-07-30 06:44:00,67.0,52.2,29.99,NNW,346,1.0,7.0,59,0.00,,,0.00,127,Wunderground v.1.15,2015-07-30 13:44:00,
2015-07-30 06:45:00,67.1,52.3,29.99,NNW,346,2.0,7.0,59,0.00,,,0.00,127,Wunderground v.1.15,2015-07-30 13:45:00,
2015-07-30 06:46:00,67.1,52.3,29.99,NNW,330,7.0,8.0,59,0.00,,,0.00,128,Wunderground v.1.15,2015-07-30 13:46:00,
2015-07-30 06:47:00,67.1,52.3,29.99,NNW,339,6.0,8.0,59,0.00,,,0.00,134,Wunderground v.1.15,2015-07-30 13:47:00,
2015-07-30 06:48:00,67.2,52.4,29.99,NNW,338,3.0,8.0,59,0.00,,,0.00,137,Wunderground v.1.15,2015-07-30 13:48:00,
2015-07-30 06:49:00,67.2,52.4,29.99,NNW,336,4.0,8.0,59,0.00,,,0.00,141,Wunderground v.1.15,2015-07-30 13:49:00,
2015-07-30 06:50:00,67.2,52.4,29.99,NNW,336,4.0,4.0,59,0.00,,,0.00,142,Wunderground v.1.15,2015-07-30 13:50:00,
2015-07-30 06:51:00,67.3,52.5,29.99,NNW,336,2.0,7.0,59,0.00,,,0.00,146,Wunderground v.1.15,2015-07-30 13:51:00,
2015-07-30 06:54:00,66.6,51.8,29.99,NNW,337,0.0,5.0,59,0.00,,,0.00,95,Wunderground v.1.15,2015-07-30 13:54:00,
2015-07-30 06:55:00,67.5,52.7,29.99,NNW,342,1.0,7.0,59,0.00,,,0.00,160,Wunderground v.1.15,2015-07-30 13:55:00,
2015-07-30 06:56:00,67.5,52.7,29.99,NNW,342,5.0,7.0,59,0.00,,,0.00,163,Wunderground v.1.15,2015-07-30 13:56:00,
2015-07-30 06:57:00,67.6,52.8,29.99,NNW,342,2.0,7.0,59,0.00,,,0.00,169,Wunderground v.1.15,2015-07-30 13:57:00,
2015-07-30 07:00:00,66.8,52.0,29.98,NNW,336,5.0,7.0,59,0.00,,,0.00,113,Wunderground v.1.15,2015-07-30 14:00:00,
2015-07-30 07:05:00,67.1,52.3,29.99,NNW,346,0.0,7.0,59,0.00,,,0.00,127,Wunderground v.1.15,2015-07-30 14:05:00,
2015-07-30 07:06:00,68.0,53.1,29.99,NNW,348,1.0,4.0,59,0.00,,,0.00,197,Wunderground v.1.15,2015-07-30 14:06:00,
2015-07-30 07:08:00,68.1,53.2,29.99,NNW,342,0.0,8.0,59,0.00,,,0.00,202,Wunderground v.1.15,2015-07-30 14:08:00,
2015-07-30 07:09:00,68.3,52.9,29.99,NNW,342,0.0,8.0,58,0.00,,,0.00,207,Wunderground v.1.15,2015-07-30 14:09:00,
2015-07-30 07:10:00,67.3,52.5,29.99,NNW,336,6.0,6.0,59,0.00,,,0.00,142,Wunderground v.1.15,2015-07-30 14:10:00,
2015-07-30 07:12:00,68.4,53.0,29.99,NNW,344,0.0,3.0,58,0.00,,,0.00,214,Wunderground v.1.15,2015-07-30 14:12:00,
2015-07-30 07:15:00,67.5,52.7,29.99,NNW,342,2.0,7.0,59,0.00,,,0.00,160,Wunderground v.1.15,2015-07-30 14:15:00,
2015-07-30 07:17:00,68.7,53.3,29.99,NNW,344,3.0,5.0,58,0.00,,,0.00,230,Wunderground v.1.15,2015-07-30 14:17:00,
2015-07-30 07:18:00,68.8,53.4,29.99,NNW,344,3.0,6.0,58,0.00,,,0.00,232,Wunderground v.1.15,2015-07-30 14:18:00,
2015-07-30 07:20:00,67.7,52.9,29.99,NNW,337,3.0,4.0,59,0.00,,,0.00,178,Wunderground v.1.15,2015-07-30 14:20:00,
2015-07-30 07:25:00,68.0,53.1,29.99,NNW,348,4.0,4.0,59,0.00,,,0.00,181,Wunderground v.1.15,2015-07-30 14:25:00,
2015-07-30 07:27:00,69.2,53.3,29.99,NNW,344,0.0,3.0,57,0.00,,,0.00,251,Wunderground v.1.15,2015-07-30 14:27:00,
2015-07-30 07:28:00,69.2,53.3,29.99,NNW,344,0.0,3.0,57,0.00,,,0.00,251,Wunderground v.1.15,2015-07-30 14:28:00,
2015-07-30 07:29:00,69.3,53.4,29.99,NNW,344,3.0,3.0,57,0.00,,,0.00,257,Wunderground v.1.15,2015-07-30 14:29:00,
2015-07-30 07:30:00,68.3,52.9,29.99,NNW,344,0.0,3.0,58,0.00,,,0.00,209,Wunderground v.1.15,2015-07-30 14:30:00,
2015-07-30 07:31:00,69.5,53.6,29.99,NNW,342,4.0,7.0,57,0.00,,,0.00,267,Wunderground v.1.15,2015-07-30 14:31:00,
2015-07-30 07:32:00,69.7,53.8,29.99,NNW,339,0.0,7.0,57,0.00,,,0.00,271,Wunderground v.1.15,2015-07-30 14:32:00,
2015-07-30 07:33:00,69.7,53.8,29.99,NNW,338,4.0,7.0,57,0.00,,,0.00,276,Wunderground v.1.15,2015-07-30 14:33:00,
2015-07-30 07:34:00,69.8,53.9,29.99,NNW,337,3.0,7.0,57,0.00,,,0.00,276,Wunderground v.1.15,2015-07-30 14:34:00,
2015-07-30 07:35:00,68.6,53.2,29.99,NNW,344,4.0,4.0,58,0.00,,,0.00,225,Wunderground v.1.15,2015-07-30 14:35:00,
2015-07-30 07:36:00,69.9,54.0,29.99,NNW,338,4.0,7.0,57,0.00,,,0.00,283,Wunderground v.1.15,2015-07-30 14:36:00,
2015-07-30 07:37:00,69.9,53.5,29.99,NNW,333,3.0,7.0,56,0.00,,,0.00,287,Wunderground v.1.15,2015-07-30 14:37:00,
2015-07-30 07:38:00,70.0,53.6,29.99,NNW,337,3.0,7.0,56,0.00,,,0.00,288,Wunderground v.1.15,2015-07-30 14:38:00,
2015-07-30 07:39:00,70.1,53.7,29.99,NNW,337,3.0,7.0,56,0.00,,,0.00,290,Wunderground v.1.15,2015-07-30 14:39:00,
2015-07-30 07:40:00,69.0,53.6,29.99,NNW,344,1.0,1.0,58,0.00,,,0.00,239,Wunderground v.1.15,2015-07-30 14:40:00,
2015-07-30 07:41:00,70.2,53.8,29.99,NNW,333,3.0,4.0,56,0.00,,,0.00,299,Wunderground v.1.15,2015-07-30 14:41:00,
2015-07-30 07:42:00,70.3,53.9,29.99,NNW,336,5.0,5.0,56,0.00,,,0.00,301,Wunderground v.1.15,2015-07-30 14:42:00,
2015-07-30 07:43:00,70.3,53.9,29.99,NNW,328,5.0,5.0,56,0.00,,,0.00,302,Wunderground v.1.15,2015-07-30 14:43:00,
2015-07-30 07:44:00,70.3,53.9,29.99,NNW,330,3.0,5.0,56,0.00,,,0.00,306,Wunderground v.1.15,2015-07-30 14:44:00,
2015-07-30 07:45:00,70.4,54.0,29.99,NNW,329,1.0,5.0,56,0.00,,,0.00,308,Wunderground v.1.15,2015-07-30 14:45:00,
2015-07-30 07:46:00,70.4,53.5,29.99,NNW,329,2.0,5.0,55,0.00,,,0.00,313,Wunderground v.1.15,2015-07-30 14:46:00,
2015-07-30 07:48:00,70.5,53.6,29.99,NW,312,2.0,5.0,55,0.00,,,0.00,318,Wunderground v.1.15,2015-07-30 14:48:00,
2015-07-30 07:49:00,70.6,53.6,29.99,NW,315,2.0,6.0,55,0.00,,,0.00,320,Wunderground v.1.15,2015-07-30 14:49:00,
2015-07-30 07:50:00,70.7,54.2,29.99,NW,315,0.0,3.0,56,0.00,,,0.00,323,Wunderground v.1.15,2015-07-30 14:50:00,
2015-07-30 07:51:00,70.7,53.7,29.99,NW,316,1.0,4.0,55,0.00,,,0.00,325,Wunderground v.1.15,2015-07-30 14:51:00,
2015-07-30 07:53:00,70.9,53.9,29.99,NNW,327,4.0,7.0,55,0.00,,,0.00,332,Wunderground v.1.15,2015-07-30 14:53:00,
2015-07-30 07:54:00,71.0,54.0,29.99,NW,321,3.0,7.0,55,0.00,,,0.00,336,Wunderground v.1.15,2015-07-30 14:54:00,
2015-07-30 07:56:00,71.1,54.1,29.99,NNW,331,4.0,7.0,55,0.00,,,0.00,343,Wunderground v.1.15,2015-07-30 14:56:00,
2015-07-30 08:00:00,70.2,53.8,29.99,NNW,333,3.0,4.0,56,0.00,,,0.00,299,Wunderground v.1.15,2015-07-30 15:00:00,
2015-07-30 08:05:00,70.4,53.5,29.99,NNW,329,3.0,5.0,55,0.00,,,0.00,311,Wunderground v.1.15,2015-07-30 15:05:00,
2015-07-30 08:06:00,71.7,54.2,29.99,North,355,0.0,7.0,54,0.00,,,0.00,371,Wunderground v.1.15,2015-07-30 15:06:00,
2015-07-30 08:07:00,71.9,53.8,29.99,NNW,333,6.0,7.0,53,0.00,,,0.00,373,Wunderground v.1.15,2015-07-30 15:07:00,
2015-07-30 08:08:00,71.9,54.3,29.99,NNW,333,7.0,7.0,54,0.00,,,0.00,378,Wunderground v.1.15,2015-07-30 15:08:00,
2015-07-30 08:09:00,72.0,53.9,29.99,NNW,327,3.0,8.0,53,0.00,,,0.00,380,Wunderground v.1.15,2015-07-30 15:09:00,
2015-07-30 08:10:00,70.7,53.7,29.99,NW,316,2.0,4.0,55,0.00,,,0.00,325,Wunderground v.1.15,2015-07-30 15:10:00,
2015-07-30 08:11:00,72.1,54.0,29.99,WNW,298,5.0,6.0,53,0.00,,,0.00,385,Wunderground v.1.15,2015-07-30 15:11:00,
2015-07-30 08:15:00,71.0,54.0,29.99,NNW,334,5.0,7.0,55,0.00,,,0.00,339,Wunderground v.1.15,2015-07-30 15:15:00,
2015-07-30 08:16:00,72.3,54.2,29.99,NW,305,6.0,8.0,53,0.00,,,0.00,401,Wunderground v.1.15,2015-07-30 15:16:00,
2015-07-30 08:25:00,71.3,53.8,29.99,North,360,5.0,7.0,54,0.00,,,0.00,355,Wunderground v.1.15,2015-07-30 15:25:00,
2015-07-30 08:27:00,72.7,54.6,29.99,WNW,296,6.0,7.0,53,0.00,,,0.00,424,Wunderground v.1.15,2015-07-30 15:27:00,
2015-07-30 08:28:00,72.7,54.6,29.99,NW,307,7.0,7.0,53,0.00,,,0.00,424,Wunderground v.1.15,2015-07-30 15:28:00,
2015-07-30 08:29:00,72.8,54.1,29.99,NW,316,4.0,9.0,52,0.00,,,0.00,427,Wunderground v.1.15,2015-07-30 15:29:00,
2015-07-30 08:30:00,72.0,53.9,29.99,WNW,296,4.0,6.0,53,0.00,,,0.00,381,Wunderground v.1.15,2015-07-30 15:30:00,
2015-07-30 08:31:00,73.0,54.3,29.99,NW,313,6.0,7.0,52,0.00,,,0.00,438,Wunderground v.1.15,2015-07-30 15:31:00,
2015-07-30 08:32:00,73.1,54.9,29.99,NNW,332,5.0,10.0,53,0.00,,,0.00,443,Wunderground v.1.15,2015-07-30 15:32:00,
2015-07-30 08:33:00,73.1,54.4,29.99,NNW,340,6.0,10.0,52,0.00,,,0.00,448,Wunderground v.1.15,2015-07-30 15:33:00,
2015-07-30 08:34:00,73.2,54.5,29.99,NNW,332,5.0,10.0,52,0.00,,,0.00,450,Wunderground v.1.15,2015-07-30 15:34:00,
2015-07-30 08:35:00,72.2,54.1,29.99,NW,310,5.0,8.0,53,0.00,,,0.00,397,Wunderground v.1.15,2015-07-30 15:35:00,
2015-07-30 08:36:00,73.3,54.6,29.99,NW,314,6.0,10.0,52,0.00,,,0.00,455,Wunderground v.1.15,2015-07-30 15:36:00,
2015-07-30 08:37:00,73.4,54.7,29.99,NNW,337,6.0,10.0,52,0.00,,,0.00,457,Wunderground v.1.15,2015-07-30 15:37:00,
2015-07-30 08:38:00,73.4,54.2,29.99,NNW,346,5.0,10.0,51,0.00,,,0.00,459,Wunderground v.1.15,2015-07-30 15:38:00,
2015-07-30 08:39:00,73.5,54.8,29.99,NNW,335,6.0,10.0,52,0.00,,,0.00,462,Wunderground v.1.15,2015-07-30 15:39:00,
2015-07-30 08:40:00,72.5,54.4,29.99,NNW,339,5.0,7.0,53,0.00,,,0.00,411,Wunderground v.1.15,2015-07-30 15:40:00,
2015-07-30 08:41:00,73.6,54.4,29.99,NW,323,0.0,6.0,51,0.00,,,0.00,469,Wunderground v.1.15,2015-07-30 15:41:00,
2015-07-30 08:42:00,73.7,54.4,29.99,NW,325,0.0,6.0,51,0.00,,,0.00,471,Wunderground v.1.15,2015-07-30 15:42:00,
2015-07-30 08:43:00,73.8,55.1,29.99,NW,312,3.0,6.0,52,0.00,,,0.00,473,Wunderground v.1.15,2015-07-30 15:43:00,
2015-07-30 08:44:00,73.8,55.1,29.99,NW,318,4.0,6.0,52,0.00,,,0.00,476,Wunderground v.1.15,2015-07-30 15:44:00,
2015-07-30 08:45:00,73.9,55.2,29.99,NW,320,3.0,6.0,52,0.00,,,0.00,482,Wunderground v.1.15,2015-07-30 15:45:00,
2015-07-30 08:46:00,74.0,54.7,29.99,NW,322,5.0,8.0,51,0.00,,,0.00,483,Wunderground v.1.15,2015-07-30 15:46:00,
2015-07-30 08:47:00,74.1,54.8,29.99,North,355,0.0,8.0,51,0.00,,,0.00,485,Wunderground v.1.15,2015-07-30 15:47:00,
2015-07-30 08:48:00,74.2,54.9,29.99,North,355,0.0,8.0,51,0.00,,,0.00,489,Wunderground v.1.15,2015-07-30 15:48:00,
2015-07-30 08:49:00,74.2,55.4,29.99,North,355,0.0,8.0,52,0.00,,,0.00,492,Wunderground v.1.15,2015-07-30 15:49:00,
2015-07-30 08:50:00,74.3,55.0,29.99,NNW,342,5.0,6.0,51,0.00,,,0.00,492,Wunderground v.1.15,2015-07-30 15:50:00,
2015-07-30 08:51:00,74.4,55.1,29.99,NW,313,1.0,6.0,51,0.00,,,0.00,497,Wunderground v.1.15,2015-07-30 15:51:00,
2015-07-30 08:52:00,74.5,55.2,29.99,NW,320,5.0,8.0,51,0.00,,,0.00,499,Wunderground v.1.15,2015-07-30 15:52:00,
2015-07-30 08:54:00,74.7,55.4,29.99,NW,320,4.0,8.0,51,0.00,,,0.00,504,Wunderground v.1.15,2015-07-30 15:54:00,
2015-07-30 08:58:00,75.1,55.2,29.99,NW,325,4.0,8.0,50,0.00,,,0.00,517,Wunderground v.1.15,2015-07-30 15:58:00,
2015-07-30 08:59:00,75.3,55.4,29.99,NW,325,0.0,8.0,50,0.00,,,0.00,520,Wunderground v.1.15,2015-07-30 15:59:00,
2015-07-30 09:00:00,73.6,54.4,29.99,NW,323,0.0,6.0,51,0.00,,,0.00,466,Wunderground v.1.15,2015-07-30 16:00:00,
2015-07-30 09:05:00,74.0,54.7,29.99,NW,311,5.0,8.0,51,0.00,,,0.00,482,Wunderground v.1.15,2015-07-30 16:05:00,
2015-07-30 09:10:00,76.2,55.1,29.98,WNW,287,2.0,3.0,48,0.00,,,0.00,547,Wunderground v.1.15,2015-07-30 16:10:00,
2015-07-30 09:16:00,74.9,55.6,29.99,NW,320,0.0,8.0,51,0.00,,,0.00,512,Wunderground v.1.15,2015-07-30 16:16:00,
2015-07-30 09:18:00,77.0,55.2,29.99,NNW,346,0.0,9.0,47,0.00,,,0.00,568,Wunderground v.1.15,2015-07-30 16:18:00,
2015-07-30 09:23:00,76.9,55.1,29.99,NNW,347,1.0,8.0,47,0.00,,,0.00,582,Wunderground v.1.15,2015-07-30 16:23:00,
2015-07-30 09:25:00,75.4,54.9,29.98,NNW,329,2.0,4.0,49,0.00,,,0.00,522,Wunderground v.1.15,2015-07-30 16:25:00,
2015-07-30 09:27:00,76.9,55.1,29.98,North,355,1.0,8.0,47,0.00,,,0.00,584,Wunderground v.1.15,2015-07-30 16:27:00,
2015-07-30 09:28:00,76.9,55.1,29.98,North,355,0.0,8.0,47,0.00,,,0.00,584,Wunderground v.1.15,2015-07-30 16:28:00,
2015-07-30 09:29:00,76.9,55.1,29.98,NNE,27,0.0,8.0,47,0.00,,,0.00,587,Wunderground v.1.15,2015-07-30 16:29:00,
2015-07-30 09:30:00,76.2,55.1,29.98,WNW,287,1.0,3.0,48,0.00,,,0.00,547,Wunderground v.1.15,2015-07-30 16:30:00,
2015-07-30 09:31:00,77.1,55.3,29.98,NNW,347,0.0,5.0,47,0.00,,,0.00,596,Wunderground v.1.15,2015-07-30 16:31:00,
2015-07-30 09:32:00,77.2,55.4,29.98,NNW,339,4.0,5.0,47,0.00,,,0.00,601,Wunderground v.1.15,2015-07-30 16:32:00,
2015-07-30 09:33:00,77.3,55.5,29.98,NW,319,2.0,5.0,47,0.00,,,0.00,605,Wunderground v.1.15,2015-07-30 16:33:00,
2015-07-30 09:34:00,77.4,55.6,29.98,NW,317,5.0,5.0,47,0.00,,,0.00,606,Wunderground v.1.15,2015-07-30 16:34:00,
2015-07-30 09:35:00,76.8,55.0,29.99,NNW,331,2.0,9.0,47,0.00,,,0.00,561,Wunderground v.1.15,2015-07-30 16:35:00,
2015-07-30 09:36:00,77.5,55.1,29.98,WNW,302,7.0,9.0,46,0.00,,,0.00,610,Wunderground v.1.15,2015-07-30 16:36:00,
2015-07-30 09:37:00,77.5,55.7,29.98,North,355,3.0,9.0,47,0.00,,,0.00,612,Wunderground v.1.15,2015-07-30 16:37:00,
2015-07-30 09:38:00,77.5,55.1,29.98,NNW,335,6.0,10.0,46,0.00,,,0.00,617,Wunderground v.1.15,2015-07-30 16:38:00,
2015-07-30 09:39:00,77.6,55.2,29.98,NW,318,4.0,10.0,46,0.00,,,0.00,619,Wunderground v.1.15,2015-07-30 16:39:00,
2015-07-30 09:40:00,77.0,55.2,29.99,NW,321,7.0,8.0,47,0.00,,,0.00,573,Wunderground v.1.15,2015-07-30 16:40:00,
2015-07-30 09:41:00,77.6,55.2,29.98,NW,315,5.0,7.0,46,0.00,,,0.00,624,Wunderground v.1.15,2015-07-30 16:41:00,
2015-07-30 09:42:00,77.7,55.3,29.98,NW,309,9.0,10.0,46,0.00,,,0.00,626,Wunderground v.1.15,2015-07-30 16:42:00,
2015-07-30 09:43:00,77.8,55.4,29.98,NNW,327,7.0,10.0,46,0.00,,,0.00,629,Wunderground v.1.15,2015-07-30 16:43:00,
2015-07-30 09:44:00,77.9,55.5,29.98,NW,319,6.0,10.0,46,0.00,,,0.00,631,Wunderground v.1.15,2015-07-30 16:44:00,
2015-07-30 09:45:00,77.9,55.5,29.98,WNW,298,7.0,10.0,46,0.00,,,0.00,633,Wunderground v.1.15,2015-07-30 16:45:00,
2015-07-30 09:46:00,78.0,55.5,29.98,NW,313,5.0,10.0,46,0.00,,,0.00,635,Wunderground v.1.15,2015-07-30 16:46:00,
2015-07-30 09:47:00,78.0,55.5,29.98,NW,318,3.0,10.0,46,0.00,,,0.00,638,Wunderground v.1.15,2015-07-30 16:47:00,
2015-07-30 09:48:00,78.1,55.6,29.98,NW,319,3.0,10.0,46,0.00,,,0.00,640,Wunderground v.1.15,2015-07-30 16:48:00,
2015-07-30 09:50:00,78.3,55.8,29.98,NNW,329,2.0,5.0,46,0.00,,,0.00,645,Wunderground v.1.15,2015-07-30 16:50:00,
2015-07-30 09:51:00,78.4,55.9,29.98,NNW,335,5.0,5.0,46,0.00,,,0.00,647,Wunderground v.1.15,2015-07-30 16:51:00,
2015-07-30 09:52:00,78.5,56.0,29.98,NW,319,4.0,5.0,46,0.00,,,0.00,649,Wunderground v.1.15,2015-07-30 16:52:00,
2015-07-30 09:53:00,78.6,56.1,29.98,NNW,328,3.0,8.0,46,0.00,,,0.00,654,Wunderground v.1.15,2015-07-30 16:53:00,
2015-07-30 09:58:00,78.9,55.8,29.98,NNW,338,4.0,10.0,45,0.00,,,0.00,664,Wunderground v.1.15,2015-07-30 16:58:00,
2015-07-30 09:59:00,79.0,55.8,29.98,NW,324,4.0,10.0,45,0.00,,,0.00,666,Wunderground v.1.15,2015-07-30 16:59:00,
2015-07-30 10:00:00,77.6,55.2,29.98,NNW,338,3.0,5.0,46,0.00,,,0.00,624,Wunderground v.1.15,2015-07-30 17:00:00,
2015-07-30 10:05:00,77.9,55.5,29.98,WNW,299,5.0,10.0,46,0.00,,,0.00,635,Wunderground v.1.15,2015-07-30 17:05:00,
2015-07-30 10:06:00,79.5,55.7,29.98,NNW,336,0.0,7.0,44,0.00,,,0.00,671,Wunderground v.1.15,2015-07-30 17:06:00,
2015-07-30 10:07:00,79.8,55.9,29.98,NW,326,7.0,9.0,44,0.00,,,0.00,686,Wunderground v.1.15,2015-07-30 17:07:00,
2015-07-30 10:08:00,79.9,56.0,29.98,NNW,346,4.0,9.0,44,0.00,,,0.00,687,Wunderground v.1.15,2015-07-30 17:08:00,
2015-07-30 10:09:00,79.9,56.0,29.98,NNW,344,3.0,9.0,44,0.00,,,0.00,687,Wunderground v.1.15,2015-07-30 17:09:00,
2015-07-30 10:10:00,78.3,55.8,29.98,NW,324,3.0,5.0,46,0.00,,,0.00,645,Wunderground v.1.15,2015-07-30 17:10:00,
2015-07-30 10:11:00,80.1,56.2,29.98,NNW,330,2.0,6.0,44,0.00,,,0.00,693,Wunderground v.1.15,2015-07-30 17:11:00,
2015-07-30 10:13:00,80.4,56.5,29.98,NW,312,6.0,7.0,44,0.00,,,0.00,696,Wunderground v.1.15,2015-07-30 17:13:00,
2015-07-30 10:14:00,80.6,56.7,29.98,NNW,347,6.0,8.0,44,0.00,,,0.00,700,Wunderground v.1.15,2015-07-30 17:14:00,
2015-07-30 10:15:00,78.8,55.7,29.98,NW,309,7.0,10.0,45,0.00,,,0.00,657,Wunderground v.1.15,2015-07-30 17:15:00,
2015-07-30 10:17:00,80.9,55.7,29.98,North,10,4.0,9.0,42,0.00,,,0.00,705,Wunderground v.1.15,2015-07-30 17:17:00,
2015-07-30 10:19:00,80.9,55.7,29.98,NNE,24,0.0,9.0,42,0.00,,,0.00,708,Wunderground v.1.15,2015-07-30 17:19:00,
2015-07-30 10:20:00,79.1,55.9,29.98,West,277,0.0,7.0,45,0.00,,,0.00,668,Wunderground v.1.15,2015-07-30 17:20:00,
2015-07-30 10:22:00,80.9,55.7,29.98,North,355,2.0,7.0,42,0.00,,,0.00,714,Wunderground v.1.15,2015-07-30 17:22:00,
2015-07-30 10:23:00,81.1,56.5,29.98,North,5,2.0,7.0,43,0.00,,,0.00,717,Wunderground v.1.15,2015-07-30 17:23:00,
2015-07-30 10:25:00,79.1,55.9,29.98,NNW,336,4.0,7.0,45,0.00,,,0.00,671,Wunderground v.1.15,2015-07-30 17:25:00,
2015-07-30 10:27:00,81.3,56.0,29.98,NNW,348,0.0,7.0,42,0.00,,,0.00,721,Wunderground v.1.15,2015-07-30 17:27:00,
2015-07-30 10:28:00,81.3,56.0,29.98,NNW,348,0.0,7.0,42,0.00,,,0.00,721,Wunderground v.1.15,2015-07-30 17:28:00,
2015-07-30 10:29:00,81.6,56.3,29.98,NNW,328,4.0,7.0,42,0.00,,,0.00,721,Wunderground v.1.15,2015-07-30 17:29:00,
2015-07-30 10:30:00,80.0,56.1,29.98,NNW,331,2.0,6.0,44,0.00,,,0.00,691,Wunderground v.1.15,2015-07-30 17:30:00,
2015-07-30 10:31:00,82.5,56.4,29.98,NW,315,2.0,4.0,41,0.00,,,0.00,729,Wunderground v.1.15,2015-07-30 17:31:00,
2015-07-30 10:32:00,82.9,56.8,29.98,NNE,26,2.0,5.0,41,0.00,,,0.00,735,Wunderground v.1.15,2015-07-30 17:32:00,
2015-07-30 10:33:00,83.0,56.9,29.97,NNE,26,0.0,5.0,41,0.00,,,0.00,735,Wunderground v.1.15,2015-07-30 17:33:00,
2015-07-30 10:34:00,83.1,57.0,29.97,NNE,17,2.0,5.0,41,0.00,,,0.00,737,Wunderground v.1.15,2015-07-30 17:34:00,
2015-07-30 10:35:00,80.7,56.1,29.98,NNW,348,0.0,8.0,43,0.00,,,0.00,703,Wunderground v.1.15,2015-07-30 17:35:00,
2015-07-30 10:36:00,83.3,57.1,29.97,North,355,7.0,7.0,41,0.00,,,0.00,740,Wunderground v.1.15,2015-07-30 17:36:00,
2015-07-30 10:37:00,83.4,56.5,29.97,NW,323,4.0,7.0,40,0.00,,,0.00,742,Wunderground v.1.15,2015-07-30 17:37:00,
2015-07-30 10:38:00,83.5,56.6,29.97,NW,311,6.0,7.0,40,0.00,,,0.00,744,Wunderground v.1.15,2015-07-30 17:38:00,
2015-07-30 10:39:00,83.5,56.6,29.97,NW,311,0.0,7.0,40,0.00,,,0.00,745,Wunderground v.1.15,2015-07-30 17:39:00,
2015-07-30 10:40:00,80.9,56.3,29.98,NNE,28,4.0,5.0,43,0.00,,,0.00,710,Wunderground v.1.15,2015-07-30 17:40:00,
2015-07-30 10:41:00,83.7,56.8,29.97,NW,325,9.0,10.0,40,0.00,,,0.00,749,Wunderground v.1.15,2015-07-30 17:41:00,
2015-07-30 10:42:00,83.6,56.7,29.97,NW,319,7.0,10.0,40,0.00,,,0.00,752,Wunderground v.1.15,2015-07-30 17:42:00,
2015-07-30 10:43:00,83.6,56.7,29.97,NW,309,4.0,10.0,40,0.00,,,0.00,752,Wunderground v.1.15,2015-07-30 17:43:00,
2015-07-30 10:44:00,83.5,56.6,29.97,NW,306,6.0,10.0,40,0.00,,,0.00,754,Wunderground v.1.15,2015-07-30 17:44:00,
2015-07-30 10:45:00,83.4,56.5,29.97,NW,306,3.0,10.0,40,0.00,,,0.00,756,Wunderground v.1.15,2015-07-30 17:45:00,
2015-07-30 10:46:00,83.4,56.5,29.97,WNW,302,2.0,10.0,40,0.00,,,0.00,758,Wunderground v.1.15,2015-07-30 17:46:00,
2015-07-30 10:47:00,83.4,56.5,29.97,NW,325,6.0,10.0,40,0.00,,,0.00,758,Wunderground v.1.15,2015-07-30 17:47:00,
2015-07-30 10:48:00,83.4,56.5,29.97,NNW,327,5.0,10.0,40,0.00,,,0.00,761,Wunderground v.1.15,2015-07-30 17:48:00,
2015-07-30 10:49:00,83.4,56.5,29.97,NNW,348,5.0,10.0,40,0.00,,,0.00,763,Wunderground v.1.15,2015-07-30 17:49:00,
2015-07-30 10:51:00,83.6,56.7,29.97,WNW,298,3.0,5.0,40,0.00,,,0.00,766,Wunderground v.1.15,2015-07-30 17:51:00,
2015-07-30 10:53:00,83.9,57.0,29.97,NNW,337,4.0,8.0,40,0.00,,,0.00,770,Wunderground v.1.15,2015-07-30 17:53:00,
2015-07-30 10:54:00,84.0,56.4,29.97,North,355,4.0,8.0,39,0.00,,,0.00,772,Wunderground v.1.15,2015-07-30 17:54:00,
2015-07-30 10:55:00,84.1,56.5,29.97,NW,324,5.0,8.0,39,0.00,,,0.00,775,Wunderground v.1.15,2015-07-30 17:55:00,
2015-07-30 10:56:00,84.1,56.5,29.97,NNW,348,5.0,8.0,39,0.00,,,0.00,775,Wunderground v.1.15,2015-07-30 17:56:00,
2015-07-30 10:58:00,84.1,56.5,29.97,North,350,0.0,9.0,39,0.00,,,0.00,779,Wunderground v.1.15,2015-07-30 17:58:00,
2015-07-30 10:59:00,83.6,56.7,29.97,WNW,302,3.0,7.0,40,0.00,,,0.00,745,Wunderground v.1.15,2015-07-30 17:59:00,
2015-07-30 11:04:00,83.5,56.6,29.97,NW,311,6.0,10.0,40,0.00,,,0.00,754,Wunderground v.1.15,2015-07-30 18:04:00,
2015-07-30 11:06:00,84.8,57.1,29.97,NW,315,6.0,6.0,39,0.00,,,0.00,791,Wunderground v.1.15,2015-07-30 18:06:00,
2015-07-30 11:09:00,83.4,56.5,29.97,North,355,1.0,10.0,40,0.00,,,0.00,766,Wunderground v.1.15,2015-07-30 18:09:00,
2015-07-30 11:11:00,84.9,56.5,29.97,NW,321,3.0,6.0,38,0.00,,,0.00,798,Wunderground v.1.15,2015-07-30 18:11:00,
2015-07-30 11:14:00,84.0,56.4,29.97,North,355,5.0,8.0,39,0.00,,,0.00,773,Wunderground v.1.15,2015-07-30 18:14:00,
2015-07-30 11:15:00,85.6,57.8,29.97,WNW,287,4.0,6.0,39,0.00,,,0.00,803,Wunderground v.1.15,2015-07-30 18:15:00,
2015-07-30 11:25:00,84.7,57.7,29.97,NW,321,4.0,4.0,40,0.00,,,0.00,784,Wunderground v.1.15,2015-07-30 18:25:00,
2015-07-30 11:28:00,87.2,57.8,29.97,WNW,284,3.0,8.0,37,0.00,,,0.00,819,Wunderground v.1.15,2015-07-30 18:28:00,
2015-07-30 11:29:00,87.4,57.2,29.97,WNW,286,0.0,8.0,36,0.00,,,0.00,821,Wunderground v.1.15,2015-07-30 18:29:00,
2015-07-30 11:30:00,84.9,57.2,29.97,NW,308,4.0,5.0,39,0.00,,,0.00,796,Wunderground v.1.15,2015-07-30 18:30:00,
2015-07-30 11:31:00,87.7,57.4,29.97,NW,319,3.0,5.0,36,0.00,,,0.00,823,Wunderground v.1.15,2015-07-30 18:31:00,
2015-07-30 11:32:00,88.1,57.8,29.97,NNW,327,6.0,6.0,36,0.00,,,0.00,824,Wunderground v.1.15,2015-07-30 18:32:00,
2015-07-30 11:33:00,88.0,57.7,29.97,NW,320,4.0,6.0,36,0.00,,,0.00,828,Wunderground v.1.15,2015-07-30 18:33:00,
2015-07-30 11:34:00,88.0,57.7,29.97,NW,320,0.0,6.0,36,0.00,,,0.00,828,Wunderground v.1.15,2015-07-30 18:34:00,
2015-07-30 11:35:00,85.7,57.9,29.97,WNW,296,3.0,6.0,39,0.00,,,0.00,805,Wunderground v.1.15,2015-07-30 18:35:00,
2015-07-30 11:36:00,88.3,58.0,29.97,NW,319,3.0,7.0,36,0.00,,,0.00,831,Wunderground v.1.15,2015-07-30 18:36:00,
2015-07-30 11:37:00,88.4,58.1,29.97,NW,315,4.0,7.0,36,0.00,,,0.00,831,Wunderground v.1.15,2015-07-30 18:37:00,
2015-07-30 11:38:00,88.4,57.3,29.97,West,273,5.0,7.0,35,0.00,,,0.00,833,Wunderground v.1.15,2015-07-30 18:38:00,
2015-07-30 11:39:00,88.4,57.3,29.97,NW,326,5.0,7.0,35,0.00,,,0.00,833,Wunderground v.1.15,2015-07-30 18:39:00,
2015-07-30 11:40:00,87.1,56.9,29.97,WNW,293,4.0,7.0,36,0.00,,,0.00,812,Wunderground v.1.15,2015-07-30 18:40:00,
2015-07-30 11:41:00,88.4,57.3,29.97,NNW,329,3.0,4.0,35,0.00,,,0.00,837,Wunderground v.1.15,2015-07-30 18:41:00,
2015-07-30 11:42:00,88.6,57.4,29.96,WNW,290,4.0,6.0,35,0.00,,,0.00,838,Wunderground v.1.15,2015-07-30 18:42:00,
2015-07-30 11:43:00,88.6,57.4,29.96,NW,315,3.0,8.0,35,0.00,,,0.00,838,Wunderground v.1.15,2015-07-30 18:43:00,
2015-07-30 11:44:00,88.5,56.6,29.96,NW,321,3.0,8.0,34,0.00,,,0.00,840,Wunderground v.1.15,2015-07-30 18:44:00,
2015-07-30 11:45:00,88.5,57.4,29.96,NW,316,5.0,8.0,35,0.00,,,0.00,840,Wunderground v.1.15,2015-07-30 18:45:00,
2015-07-30 11:46:00,88.5,56.6,29.96,NW,320,4.0,8.0,34,0.00,,,0.00,842,Wunderground v.1.15,2015-07-30 18:46:00,
2015-07-30 11:47:00,88.5,57.4,29.96,NW,314,4.0,8.0,35,0.00,,,0.00,844,Wunderground v.1.15,2015-07-30 18:47:00,
2015-07-30 11:48:00,88.7,57.5,29.96,NNW,331,6.0,8.0,35,0.00,,,0.00,844,Wunderground v.1.15,2015-07-30 18:48:00,
2015-07-30 11:49:00,88.7,57.5,29.96,NNW,331,5.0,8.0,35,0.00,,,0.00,844,Wunderground v.1.15,2015-07-30 18:49:00,
2015-07-30 11:50:00,88.8,56.8,29.96,WNW,301,5.0,6.0,34,0.00,,,0.00,846,Wunderground v.1.15,2015-07-30 18:50:00,
2015-07-30 11:53:00,89.0,56.2,29.96,North,355,3.0,8.0,33,0.00,,,0.00,849,Wunderground v.1.15,2015-07-30 18:53:00,
2015-07-30 11:54:00,89.0,56.2,29.96,NNW,338,5.0,8.0,33,0.00,,,0.00,849,Wunderground v.1.15,2015-07-30 18:54:00,
2015-07-30 11:55:00,89.0,56.2,29.96,NNW,341,3.0,8.0,33,0.00,,,0.00,851,Wunderground v.1.15,2015-07-30 18:55:00,
2015-07-30 11:56:00,89.0,57.0,29.96,NNW,340,5.0,8.0,34,0.00,,,0.00,851,Wunderground v.1.15,2015-07-30 18:56:00,
2015-07-30 11:57:00,88.4,57.3,29.97,West,273,5.0,7.0,35,0.00,,,0.00,833,Wunderground v.1.15,2015-07-30 18:57:00,
2015-07-30 11:59:00,89.3,57.3,29.96,NW,323,6.0,8.0,34,0.00,,,0.00,854,Wunderground v.1.15,2015-07-30 18:59:00,
2015-07-30 12:00:00,89.5,57.4,29.96,NW,313,4.0,6.0,34,0.00,,,0.00,854,Wunderground v.1.15,2015-07-30 19:00:00,
2015-07-30 12:03:00,88.6,57.4,29.96,NW,313,5.0,8.0,35,0.00,,,0.00,838,Wunderground v.1.15,2015-07-30 19:03:00,
2015-07-30 12:04:00,89.8,56.9,29.96,NNW,329,5.0,7.0,33,0.00,,,0.00,858,Wunderground v.1.15,2015-07-30 19:04:00,
2015-07-30 12:06:00,90.0,57.0,29.96,NNW,346,5.0,8.0,33,0.00,,,0.00,858,Wunderground v.1.15,2015-07-30 19:06:00,
2015-07-30 12:08:00,88.6,57.4,29.96,WNW,297,4.0,8.0,35,0.00,,,0.00,844,Wunderground v.1.15,2015-07-30 19:08:00,
2015-07-30 12:11:00,90.5,56.6,29.96,NNW,329,7.0,9.0,32,0.00,,,0.00,863,Wunderground v.1.15,2015-07-30 19:11:00,
2015-07-30 12:13:00,89.0,56.2,29.96,North,360,7.0,8.0,33,0.00,,,0.00,849,Wunderground v.1.15,2015-07-30 19:13:00,
2015-07-30 12:15:00,90.4,57.4,29.96,NNW,333,2.0,10.0,33,0.00,,,0.00,867,Wunderground v.1.15,2015-07-30 19:15:00,
2015-07-30 12:22:00,91.6,55.8,29.95,North,11,5.0,8.0,30,0.00,,,0.00,868,Wunderground v.1.15,2015-07-30 19:22:00,
2015-07-30 12:23:00,89.5,56.6,29.96,NW,313,0.0,6.0,33,0.00,,,0.00,856,Wunderground v.1.15,2015-07-30 19:23:00,
2015-07-30 12:24:00,91.8,56.0,29.95,NW,312,5.0,8.0,30,0.00,,,0.00,870,Wunderground v.1.15,2015-07-30 19:24:00,
2015-07-30 12:28:00,91.9,56.0,29.95,NW,315,6.0,8.0,30,0.00,,,0.00,872,Wunderground v.1.15,2015-07-30 19:28:00,
2015-07-30 12:29:00,92.1,56.2,29.95,NW,308,4.0,8.0,30,0.00,,,0.00,874,Wunderground v.1.15,2015-07-30 19:29:00,
2015-07-30 12:30:00,92.3,56.4,29.95,NW,308,3.0,4.0,30,0.00,,,0.00,872,Wunderground v.1.15,2015-07-30 19:30:00,
2015-07-30 12:31:00,92.5,57.5,29.95,NW,308,0.0,4.0,31,0.00,,,0.00,874,Wunderground v.1.15,2015-07-30 19:31:00,
2015-07-30 12:32:00,93.6,57.5,29.95,NW,307,0.0,4.0,30,0.00,,,0.00,875,Wunderground v.1.15,2015-07-30 19:32:00,
2015-07-30 12:33:00,90.4,56.5,29.96,NW,315,4.0,10.0,32,0.00,,,0.00,865,Wunderground v.1.15,2015-07-30 19:33:00,
2015-07-30 12:34:00,94.2,58.0,29.95,West,279,6.0,7.0,30,0.00,,,0.00,875,Wunderground v.1.15,2015-07-30 19:34:00,
2015-07-30 12:35:00,94.3,58.1,29.95,NW,313,5.0,7.0,30,0.00,,,0.00,875,Wunderground v.1.15,2015-07-30 19:35:00,
2015-07-30 12:36:00,94.2,58.0,29.95,NW,311,3.0,7.0,30,0.00,,,0.00,877,Wunderground v.1.15,2015-07-30 19:36:00,
2015-07-30 12:37:00,94.2,58.0,29.95,NW,323,5.0,7.0,30,0.00,,,0.00,877,Wunderground v.1.15,2015-07-30 19:37:00,
2015-07-30 12:38:00,90.6,57.6,29.96,WNW,297,6.0,10.0,33,0.00,,,0.00,867,Wunderground v.1.15,2015-07-30 19:38:00,
2015-07-30 12:39:00,93.8,57.7,29.95,NW,308,4.0,8.0,30,0.00,,,0.00,877,Wunderground v.1.15,2015-07-30 19:39:00,
2015-07-30 12:40:00,93.6,57.5,29.95,NW,321,1.0,3.0,30,0.00,,,0.00,877,Wunderground v.1.15,2015-07-30 19:40:00,
2015-07-30 12:41:00,93.6,57.5,29.95,NW,321,2.0,3.0,30,0.00,,,0.00,877,Wunderground v.1.15,2015-07-30 19:41:00,
2015-07-30 12:42:00,93.5,57.4,29.95,NW,321,1.0,3.0,30,0.00,,,0.00,879,Wunderground v.1.15,2015-07-30 19:42:00,
2015-07-30 12:43:00,91.7,55.9,29.95,North,355,6.0,8.0,30,0.00,,,0.00,868,Wunderground v.1.15,2015-07-30 19:43:00,
2015-07-30 12:44:00,93.9,57.8,29.95,West,266,5.0,6.0,30,0.00,,,0.00,877,Wunderground v.1.15,2015-07-30 19:44:00,
2015-07-30 12:45:00,94.2,58.0,29.95,WSW,254,4.0,6.0,30,0.00,,,0.00,881,Wunderground v.1.15,2015-07-30 19:45:00,
2015-07-30 12:47:00,94.6,58.4,29.95,NNW,327,8.0,8.0,30,0.00,,,0.00,879,Wunderground v.1.15,2015-07-30 19:47:00,
2015-07-30 12:48:00,94.6,58.4,29.95,NW,304,4.0,8.0,30,0.00,,,0.00,879,Wunderground v.1.15,2015-07-30 19:48:00,
2015-07-30 12:49:00,94.6,56.4,29.95,NNW,333,5.0,8.0,28,0.00,,,0.00,881,Wunderground v.1.15,2015-07-30 19:49:00,
2015-07-30 12:50:00,94.8,57.6,29.95,NW,306,7.0,7.0,29,0.00,,,0.00,877,Wunderground v.1.15,2015-07-30 19:50:00,
2015-07-30 12:52:00,94.7,57.5,29.95,NW,315,4.0,9.0,29,0.00,,,0.00,879,Wunderground v.1.15,2015-07-30 19:52:00,
2015-07-30 12:53:00,94.7,57.5,29.94,NW,317,0.0,9.0,29,0.00,,,0.00,881,Wunderground v.1.15,2015-07-30 19:53:00,
2015-07-30 12:54:00,94.9,57.7,29.94,NW,313,5.0,9.0,29,0.00,,,0.00,881,Wunderground v.1.15,2015-07-30 19:54:00,
2015-07-30 12:55:00,94.9,57.7,29.94,WNW,300,7.0,9.0,29,0.00,,,0.00,881,Wunderground v.1.15,2015-07-30 19:55:00,
2015-07-30 12:57:00,94.8,56.6,29.94,WNW,292,4.0,9.0,28,0.00,,,0.00,882,Wunderground v.1.15,2015-07-30 19:57:00,
2015-07-30 12:59:00,95.0,55.8,29.94,WNW,290,6.0,9.0,27,0.00,,,0.00,881,Wunderground v.1.15,2015-07-30 19:59:00,
2015-07-30 13:00:00,93.6,57.5,29.95,NW,321,0.0,3.0,30,0.00,,,0.00,877,Wunderground v.1.15,2015-07-30 20:00:00,
2015-07-30 13:05:00,94.3,58.1,29.95,West,261,3.0,7.0,30,0.00,,,0.00,881,Wunderground v.1.15,2015-07-30 20:05:00,
2015-07-30 13:09:00,95.5,56.2,29.94,WNW,293,2.0,10.0,27,0.00,,,0.00,881,Wunderground v.1.15,2015-07-30 20:09:00,
2015-07-30 13:10:00,94.8,57.6,29.95,WNW,293,6.0,7.0,29,0.00,,,0.00,877,Wunderground v.1.15,2015-07-30 20:10:00,
2015-07-30 13:11:00,95.5,56.2,29.94,NNW,327,5.0,8.0,27,0.00,,,0.00,877,Wunderground v.1.15,2015-07-30 20:11:00,
2015-07-30 13:12:00,95.5,56.2,29.94,NNW,328,4.0,8.0,27,0.00,,,0.00,881,Wunderground v.1.15,2015-07-30 20:12:00,
2015-07-30 13:14:00,95.6,55.2,29.94,NNW,338,5.0,8.0,26,0.00,,,0.00,877,Wunderground v.1.15,2015-07-30 20:14:00,
2015-07-30 13:15:00,94.8,57.6,29.94,WNW,302,7.0,9.0,29,0.00,,,0.00,881,Wunderground v.1.15,2015-07-30 20:15:00,
2015-07-30 13:24:00,95.5,56.2,29.94,NW,322,8.0,8.0,27,0.00,,,0.00,882,Wunderground v.1.15,2015-07-30 20:24:00,
2015-07-30 13:28:00,96.1,54.6,29.94,NW,316,6.0,8.0,25,0.00,,,0.00,877,Wunderground v.1.15,2015-07-30 20:28:00,
2015-07-30 13:29:00,95.5,56.2,29.94,WNW,292,3.0,10.0,27,0.00,,,0.00,879,Wunderground v.1.15,2015-07-30 20:29:00,
2015-07-30 13:30:00,96.2,54.7,29.94,NNW,343,6.0,6.0,25,0.00,,,0.00,875,Wunderground v.1.15,2015-07-30 20:30:00,
2015-07-30 13:31:00,96.2,54.7,29.94,NW,325,5.0,8.0,25,0.00,,,0.00,874,Wunderground v.1.15,2015-07-30 20:31:00,
2015-07-30 13:32:00,96.2,54.7,29.94,NW,313,9.0,9.0,25,0.00,,,0.00,874,Wunderground v.1.15,2015-07-30 20:32:00,
2015-07-30 13:33:00,96.2,53.6,29.94,NW,325,4.0,9.0,24,0.00,,,0.00,874,Wunderground v.1.15,2015-07-30 20:33:00,
2015-07-30 13:34:00,95.6,55.2,29.94,NW,322,3.0,8.0,26,0.00,,,0.00,875,Wunderground v.1.15,2015-07-30 20:34:00,
2015-07-30 13:35:00,96.2,52.4,29.93,NNW,333,5.0,9.0,23,0.00,,,0.00,872,Wunderground v.1.15,2015-07-30 20:35:00,
2015-07-30 13:36:00,96.3,53.6,29.93,NW,321,2.0,9.0,24,0.00,,,0.00,872,Wunderground v.1.15,2015-07-30 20:36:00,
2015-07-30 13:37:00,96.3,53.6,29.94,WNW,299,8.0,9.0,24,0.00,,,0.00,872,Wunderground v.1.15,2015-07-30 20:37:00,
2015-07-30 13:38:00,96.3,52.5,29.93,NW,311,10.0,10.0,23,0.00,,,0.00,870,Wunderground v.1.15,2015-07-30 20:38:00,
2015-07-30 13:39:00,95.7,55.3,29.94,WNW,296,1.0,4.0,26,0.00,,,0.00,877,Wunderground v.1.15,2015-07-30 20:39:00,
2015-07-30 13:40:00,96.4,51.4,29.93,WNW,286,6.0,6.0,22,0.00,,,0.00,872,Wunderground v.1.15,2015-07-30 20:40:00,
2015-07-30 13:41:00,96.4,51.4,29.93,WNW,298,5.0,8.0,22,0.00,,,0.00,872,Wunderground v.1.15,2015-07-30 20:41:00,
2015-07-30 13:42:00,96.4,52.6,29.93,WNW,298,5.0,8.0,23,0.00,,,0.00,870,Wunderground v.1.15,2015-07-30 20:42:00,
2015-07-30 13:43:00,96.4,53.7,29.93,NW,314,5.0,8.0,24,0.00,,,0.00,868,Wunderground v.1.15,2015-07-30 20:43:00,
2015-07-30 13:44:00,96.4,53.7,29.93,NW,325,4.0,8.0,24,0.00,,,0.00,868,Wunderground v.1.15,2015-07-30 20:44:00,
2015-07-30 13:45:00,96.4,53.7,29.93,NNW,333,4.0,8.0,24,0.00,,,0.00,867,Wunderground v.1.15,2015-07-30 20:45:00,
2015-07-30 13:46:00,96.5,54.9,29.93,NW,309,10.0,10.0,25,0.00,,,0.00,867,Wunderground v.1.15,2015-07-30 20:46:00,
2015-07-30 13:47:00,96.6,55.0,29.93,NNW,335,0.0,10.0,25,0.00,,,0.00,865,Wunderground v.1.15,2015-07-30 20:47:00,
2015-07-30 13:48:00,96.7,54.0,29.93,NNW,328,8.0,10.0,24,0.00,,,0.00,863,Wunderground v.1.15,2015-07-30 20:48:00,
2015-07-30 13:49:00,96.8,55.2,29.93,NNW,343,6.0,10.0,25,0.00,,,0.00,867,Wunderground v.1.15,2015-07-30 20:49:00,
2015-07-30 13:51:00,97.0,54.2,29.93,NW,311,0.0,8.0,24,0.00,,,0.00,865,Wunderground v.1.15,2015-07-30 20:51:00,
2015-07-30 13:52:00,97.3,54.5,29.93,WNW,290,8.0,9.0,24,0.00,,,0.00,861,Wunderground v.1.15,2015-07-30 20:52:00,
2015-07-30 13:54:00,97.5,54.6,29.93,North,355,3.0,10.0,24,0.00,,,0.00,861,Wunderground v.1.15,2015-07-30 20:54:00,
2015-07-30 13:56:00,97.6,53.6,29.93,NW,325,3.0,10.0,23,0.00,,,0.00,858,Wunderground v.1.15,2015-07-30 20:56:00,
2015-07-30 13:57:00,97.7,53.6,29.93,NW,325,3.0,10.0,23,0.00,,,0.00,858,Wunderground v.1.15,2015-07-30 20:57:00,
2015-07-30 13:58:00,97.8,54.9,29.93,NW,321,4.0,10.0,24,0.00,,,0.00,860,Wunderground v.1.15,2015-07-30 20:58:00,
2015-07-30 13:59:00,96.3,50.0,29.93,NW,326,6.0,10.0,21,0.00,,,0.00,872,Wunderground v.1.15,2015-07-30 20:59:00,
2015-07-30 14:04:00,96.4,53.7,29.93,NNW,333,5.0,8.0,24,0.00,,,0.00,870,Wunderground v.1.15,2015-07-30 21:04:00,
2015-07-30 14:07:00,99.3,53.8,29.93,NW,322,7.0,10.0,22,0.00,,,0.00,853,Wunderground v.1.15,2015-07-30 21:07:00,
2015-07-30 14:09:00,96.7,54.0,29.93,NNW,342,7.0,10.0,24,0.00,,,0.00,867,Wunderground v.1.15,2015-07-30 21:09:00,
2015-07-30 14:14:00,97.5,54.6,29.93,North,355,3.0,10.0,24,0.00,,,0.00,861,Wunderground v.1.15,2015-07-30 21:14:00,
2015-07-30 14:15:00,99.5,52.7,29.92,WNW,292,5.0,9.0,21,0.00,,,0.00,844,Wunderground v.1.15,2015-07-30 21:15:00,
2015-07-30 14:19:00,98.1,52.8,29.93,WSW,256,7.0,10.0,22,0.00,,,0.00,858,Wunderground v.1.15,2015-07-30 21:19:00,
2015-07-30 14:23:00,99.5,52.7,29.92,NNW,330,1.0,10.0,21,0.00,,,0.00,837,Wunderground v.1.15,2015-07-30 21:23:00,
2015-07-30 14:25:00,99.3,55.0,29.93,NW,325,4.0,7.0,23,0.00,,,0.00,856,Wunderground v.1.15,2015-07-30 21:25:00,
2015-07-30 14:27:00,99.5,52.7,29.92,NW,309,3.0,10.0,21,0.00,,,0.00,835,Wunderground v.1.15,2015-07-30 21:27:00,
2015-07-30 14:28:00,99.5,52.7,29.92,NW,310,3.0,10.0,21,0.00,,,0.00,833,Wunderground v.1.15,2015-07-30 21:28:00,
2015-07-30 14:29:00,99.5,53.9,29.92,NW,308,10.0,11.0,22,0.00,,,0.00,833,Wunderground v.1.15,2015-07-30 21:29:00,
2015-07-30 14:30:00,99.4,53.8,29.93,NW,313,9.0,9.0,22,0.00,,,0.00,849,Wunderground v.1.15,2015-07-30 21:30:00,
2015-07-30 14:31:00,99.3,53.8,29.92,NW,325,4.0,7.0,22,0.00,,,0.00,831,Wunderground v.1.15,2015-07-30 21:31:00,
2015-07-30 14:32:00,99.3,53.8,29.92,NW,311,6.0,9.0,22,0.00,,,0.00,828,Wunderground v.1.15,2015-07-30 21:32:00,
2015-07-30 14:33:00,99.2,52.4,29.92,North,350,7.0,11.0,21,0.00,,,0.00,821,Wunderground v.1.15,2015-07-30 21:33:00,
2015-07-30 14:34:00,99.2,52.4,29.92,NW,308,2.0,11.0,21,0.00,,,0.00,821,Wunderground v.1.15,2015-07-30 21:34:00,
2015-07-30 14:35:00,99.4,53.8,29.92,North,350,9.0,11.0,22,0.00,,,0.00,842,Wunderground v.1.15,2015-07-30 21:35:00,
2015-07-30 14:36:00,99.1,53.6,29.92,NNW,346,6.0,11.0,22,0.00,,,0.00,817,Wunderground v.1.15,2015-07-30 21:36:00,
2015-07-30 14:37:00,99.1,52.3,29.92,NNW,348,7.0,11.0,21,0.00,,,0.00,817,Wunderground v.1.15,2015-07-30 21:37:00,
2015-07-30 14:38:00,99.1,53.6,29.92,North,355,8.0,11.0,22,0.00,,,0.00,817,Wunderground v.1.15,2015-07-30 21:38:00,
2015-07-30 14:39:00,99.1,52.3,29.92,NNW,327,3.0,11.0,21,0.00,,,0.00,816,Wunderground v.1.15,2015-07-30 21:39:00,
2015-07-30 14:40:00,99.6,51.4,29.93,NNW,340,6.0,10.0,20,0.00,,,0.00,840,Wunderground v.1.15,2015-07-30 21:40:00,
2015-07-30 14:41:00,99.2,52.4,29.92,NW,324,5.0,9.0,21,0.00,,,0.00,816,Wunderground v.1.15,2015-07-30 21:41:00,
2015-07-30 14:42:00,99.2,52.4,29.92,WNW,298,8.0,9.0,21,0.00,,,0.00,812,Wunderground v.1.15,2015-07-30 21:42:00,
2015-07-30 14:43:00,99.3,52.5,29.92,NW,323,8.0,10.0,21,0.00,,,0.00,810,Wunderground v.1.15,2015-07-30 21:43:00,
2015-07-30 14:44:00,99.2,52.4,29.92,NW,312,5.0,10.0,21,0.00,,,0.00,810,Wunderground v.1.15,2015-07-30 21:44:00,
2015-07-30 14:45:00,99.2,52.4,29.92,West,281,5.0,10.0,21,0.00,,,0.00,807,Wunderground v.1.15,2015-07-30 21:45:00,
2015-07-30 14:46:00,99.2,52.4,29.92,WNW,301,5.0,10.0,21,0.00,,,0.00,807,Wunderground v.1.15,2015-07-30 21:46:00,
2015-07-30 14:47:00,99.2,52.4,29.92,NNW,347,6.0,10.0,21,0.00,,,0.00,802,Wunderground v.1.15,2015-07-30 21:47:00,
2015-07-30 14:49:00,99.4,51.2,29.92,NW,321,3.0,10.0,20,0.00,,,0.00,800,Wunderground v.1.15,2015-07-30 21:49:00,
2015-07-30 14:50:00,99.6,51.4,29.92,WNW,296,0.0,6.0,20,0.00,,,0.00,800,Wunderground v.1.15,2015-07-30 21:50:00,
2015-07-30 14:51:00,99.9,51.7,29.92,NNW,340,7.0,7.0,20,0.00,,,0.00,800,Wunderground v.1.15,2015-07-30 21:51:00,
2015-07-30 14:52:00,100.2,51.9,29.92,NW,325,7.0,9.0,20,0.00,,,0.00,798,Wunderground v.1.15,2015-07-30 21:52:00,
2015-07-30 14:54:00,100.3,50.6,29.92,NNW,340,5.0,9.0,19,0.00,,,0.00,795,Wunderground v.1.15,2015-07-30 21:54:00,
2015-07-30 14:55:00,100.3,50.6,29.92,North,5,2.0,9.0,19,0.00,,,0.00,791,Wunderground v.1.15,2015-07-30 21:55:00,
2015-07-30 14:56:00,100.4,50.7,29.91,NNW,336,4.0,9.0,19,0.00,,,0.00,791,Wunderground v.1.15,2015-07-30 21:56:00,
2015-07-30 14:57:00,99.1,53.6,29.92,NNW,339,7.0,11.0,22,0.00,,,0.00,817,Wunderground v.1.15,2015-07-30 21:57:00,
2015-07-30 14:59:00,100.4,50.7,29.91,NW,324,9.0,12.0,19,0.00,,,0.00,788,Wunderground v.1.15,2015-07-30 21:59:00,
2015-07-30 15:02:00,99.3,52.5,29.92,NW,317,6.0,9.0,21,0.00,,,0.00,812,Wunderground v.1.15,2015-07-30 22:02:00,
2015-07-30 15:07:00,99.2,52.4,29.92,NNW,347,6.0,10.0,21,0.00,,,0.00,802,Wunderground v.1.15,2015-07-30 22:07:00,
2015-07-30 15:11:00,99.9,50.3,29.91,WNW,300,8.0,10.0,19,0.00,,,0.00,770,Wunderground v.1.15,2015-07-30 22:11:00,
2015-07-30 15:12:00,100.2,50.5,29.92,NW,325,7.0,9.0,19,0.00,,,0.00,798,Wunderground v.1.15,2015-07-30 22:12:00,
2015-07-30 15:16:00,100.0,48.9,29.91,NNW,327,6.0,11.0,18,0.00,,,0.00,759,Wunderground v.1.15,2015-07-30 22:16:00,
2015-07-30 15:17:00,100.4,50.7,29.91,North,360,8.0,9.0,19,0.00,,,0.00,789,Wunderground v.1.15,2015-07-30 22:17:00,
2015-07-30 15:18:00,100.0,50.3,29.91,NW,319,2.0,11.0,19,0.00,,,0.00,756,Wunderground v.1.15,2015-07-30 22:18:00,
2015-07-30 15:20:00,100.3,50.6,29.91,NNW,345,9.0,9.0,19,0.00,,,0.00,752,Wunderground v.1.15,2015-07-30 22:20:00,
2015-07-30 15:23:00,100.5,50.8,29.90,NNW,339,7.0,10.0,19,0.00,,,0.00,747,Wunderground v.1.15,2015-07-30 22:23:00,
2015-07-30 15:25:00,99.9,50.3,29.91,North,360,8.0,8.0,19,0.00,,,0.00,784,Wunderground v.1.15,2015-07-30 22:25:00,
2015-07-30 15:28:00,100.5,50.8,29.91,NW,321,3.0,10.0,19,0.00,,,0.00,745,Wunderground v.1.15,2015-07-30 22:28:00,
2015-07-30 15:29:00,100.6,49.4,29.90,NW,306,4.0,10.0,18,0.00,,,0.00,742,Wunderground v.1.15,2015-07-30 22:29:00,
2015-07-30 15:30:00,99.9,51.7,29.91,WNW,294,8.0,8.0,20,0.00,,,0.00,768,Wunderground v.1.15,2015-07-30 22:30:00,
2015-07-30 15:31:00,100.7,47.9,29.90,NW,316,7.0,9.0,17,0.00,,,0.00,735,Wunderground v.1.15,2015-07-30 22:31:00,
2015-07-30 15:32:00,100.6,47.8,29.91,NW,317,5.0,9.0,17,0.00,,,0.00,729,Wunderground v.1.15,2015-07-30 22:32:00,
2015-07-30 15:33:00,100.5,47.8,29.90,NW,317,6.0,9.0,17,0.00,,,0.00,728,Wunderground v.1.15,2015-07-30 22:33:00,
2015-07-30 15:34:00,100.5,49.3,29.90,WNW,291,6.0,10.0,18,0.00,,,0.00,728,Wunderground v.1.15,2015-07-30 22:34:00,
2015-07-30 15:35:00,100.0,50.3,29.91,NW,313,7.0,10.0,19,0.00,,,0.00,761,Wunderground v.1.15,2015-07-30 22:35:00,
2015-07-30 15:36:00,100.5,49.3,29.90,NW,310,1.0,10.0,18,0.00,,,0.00,722,Wunderground v.1.15,2015-07-30 22:36:00,
2015-07-30 15:37:00,100.5,49.3,29.90,WNW,291,8.0,11.0,18,0.00,,,0.00,719,Wunderground v.1.15,2015-07-30 22:37:00,
2015-07-30 15:38:00,100.5,49.3,29.90,NW,319,8.0,11.0,18,0.00,,,0.00,717,Wunderground v.1.15,2015-07-30 22:38:00,
2015-07-30 15:39:00,100.5,49.3,29.90,NW,318,4.0,11.0,18,0.00,,,0.00,715,Wunderground v.1.15,2015-07-30 22:39:00,
2015-07-30 15:40:00,100.3,50.6,29.91,NW,321,6.0,10.0,19,0.00,,,0.00,752,Wunderground v.1.15,2015-07-30 22:40:00,
2015-07-30 15:41:00,100.6,49.4,29.90,NNE,18,7.0,7.0,18,0.00,,,0.00,712,Wunderground v.1.15,2015-07-30 22:41:00,
2015-07-30 15:42:00,100.7,49.5,29.90,North,350,5.0,9.0,18,0.00,,,0.00,708,Wunderground v.1.15,2015-07-30 22:42:00,
2015-07-30 15:43:00,100.7,50.9,29.90,NNE,14,6.0,10.0,19,0.00,,,0.00,707,Wunderground v.1.15,2015-07-30 22:43:00,
2015-07-30 15:44:00,100.6,50.8,29.90,North,5,6.0,14.0,19,0.00,,,0.00,705,Wunderground v.1.15,2015-07-30 22:44:00,
2015-07-30 15:45:00,100.5,50.8,29.90,North,350,4.0,14.0,19,0.00,,,0.00,703,Wunderground v.1.15,2015-07-30 22:45:00,
2015-07-30 15:46:00,100.4,50.7,29.90,NE,41,4.0,14.0,19,0.00,,,0.00,700,Wunderground v.1.15,2015-07-30 22:46:00,
2015-07-30 15:47:00,100.5,50.8,29.90,NE,40,0.0,14.0,19,0.00,,,0.00,696,Wunderground v.1.15,2015-07-30 22:47:00,
2015-07-30 15:48:00,100.5,50.8,29.90,NNE,26,0.0,14.0,19,0.00,,,0.00,694,Wunderground v.1.15,2015-07-30 22:48:00,
2015-07-30 15:49:00,100.6,50.8,29.90,NNW,342,6.0,14.0,19,0.00,,,0.00,693,Wunderground v.1.15,2015-07-30 22:49:00,
2015-07-30 15:50:00,100.6,50.8,29.90,WNW,291,0.0,6.0,19,0.00,,,0.00,691,Wunderground v.1.15,2015-07-30 22:50:00,
2015-07-30 15:51:00,100.7,50.9,29.90,NNW,336,7.0,7.0,19,0.00,,,0.00,689,Wunderground v.1.15,2015-07-30 22:51:00,
2015-07-30 15:53:00,100.7,50.9,29.90,NW,319,4.0,7.0,19,0.00,,,0.00,686,Wunderground v.1.15,2015-07-30 22:53:00,
2015-07-30 15:54:00,100.7,50.9,29.90,WNW,294,7.0,8.0,19,0.00,,,0.00,682,Wunderground v.1.15,2015-07-30 22:54:00,
2015-07-30 15:55:00,100.7,50.9,29.90,WNW,301,7.0,9.0,19,0.00,,,0.00,680,Wunderground v.1.15,2015-07-30 22:55:00,
2015-07-30 15:58:00,100.5,49.3,29.90,NW,317,4.0,11.0,18,0.00,,,0.00,715,Wunderground v.1.15,2015-07-30 22:58:00,
2015-07-30 16:03:00,100.6,49.4,29.90,North,5,7.0,14.0,18,0.00,,,0.00,705,Wunderground v.1.15,2015-07-30 23:03:00,
2015-07-30 16:08:00,100.6,50.8,29.90,North,355,3.0,14.0,19,0.00,,,0.00,693,Wunderground v.1.15,2015-07-30 23:08:00,
2015-07-30 16:09:00,100.3,49.1,29.89,WNW,292,5.0,11.0,18,0.00,,,0.00,650,Wunderground v.1.15,2015-07-30 23:09:00,
2015-07-30 16:10:00,100.3,49.1,29.90,WNW,294,5.0,11.0,18,0.00,,,0.00,647,Wunderground v.1.15,2015-07-30 23:10:00,
2015-07-30 16:11:00,100.3,49.1,29.89,WNW,297,7.0,11.0,18,0.00,,,0.00,643,Wunderground v.1.15,2015-07-30 23:11:00,
2015-07-30 16:13:00,100.7,50.9,29.90,NW,309,7.0,8.0,19,0.00,,,0.00,682,Wunderground v.1.15,2015-07-30 23:13:00,
2015-07-30 16:14:00,100.3,49.1,29.89,NW,319,8.0,10.0,18,0.00,,,0.00,636,Wunderground v.1.15,2015-07-30 23:14:00,
2015-07-30 16:15:00,100.3,47.6,29.89,NW,319,4.0,10.0,17,0.00,,,0.00,636,Wunderground v.1.15,2015-07-30 23:15:00,
2015-07-30 16:18:00,100.8,51.0,29.90,North,5,5.0,10.0,19,0.00,,,0.00,670,Wunderground v.1.15,2015-07-30 23:18:00,
2015-07-30 16:19:00,100.4,49.2,29.90,North,351,4.0,10.0,18,0.00,,,0.00,624,Wunderground v.1.15,2015-07-30 23:19:00,
2015-07-30 16:24:00,100.8,51.0,29.90,NNW,336,8.0,8.0,19,0.00,,,0.00,668,Wunderground v.1.15,2015-07-30 23:24:00,
2015-07-30 16:27:00,100.8,48.0,29.89,NNW,331,5.0,10.0,17,0.00,,,0.00,613,Wunderground v.1.15,2015-07-30 23:27:00,
2015-07-30 16:28:00,100.8,48.0,29.89,NNW,331,4.0,10.0,17,0.00,,,0.00,613,Wunderground v.1.15,2015-07-30 23:28:00,
2015-07-30 16:29:00,100.3,49.1,29.90,NW,309,6.0,11.0,18,0.00,,,0.00,649,Wunderground v.1.15,2015-07-30 23:29:00,
2015-07-30 16:30:00,100.8,46.4,29.89,WNW,296,4.0,10.0,16,0.00,,,0.00,605,Wunderground v.1.15,2015-07-30 23:30:00,
2015-07-30 16:31:00,100.9,46.5,29.89,NW,316,3.0,10.0,16,0.00,,,0.00,599,Wunderground v.1.15,2015-07-30 23:31:00,
2015-07-30 16:32:00,100.9,46.5,29.89,NNW,334,8.0,12.0,16,0.00,,,0.00,596,Wunderground v.1.15,2015-07-30 23:32:00,
2015-07-30 16:33:00,100.9,46.5,29.89,WNW,299,8.0,12.0,16,0.00,,,0.00,591,Wunderground v.1.15,2015-07-30 23:33:00,
2015-07-30 16:34:00,100.3,49.1,29.89,NW,318,6.0,10.0,18,0.00,,,0.00,636,Wunderground v.1.15,2015-07-30 23:34:00,
2015-07-30 16:35:00,100.9,46.5,29.89,NW,315,7.0,10.0,16,0.00,,,0.00,587,Wunderground v.1.15,2015-07-30 23:35:00,
2015-07-30 16:36:00,100.9,46.5,29.89,NW,317,5.0,10.0,16,0.00,,,0.00,585,Wunderground v.1.15,2015-07-30 23:36:00,
2015-07-30 16:37:00,100.8,46.4,29.89,NW,323,0.0,10.0,16,0.00,,,0.00,580,Wunderground v.1.15,2015-07-30 23:37:00,
2015-07-30 16:38:00,100.9,46.5,29.89,NW,321,0.0,10.0,16,0.00,,,0.00,580,Wunderground v.1.15,2015-07-30 23:38:00,
2015-07-30 16:39:00,100.5,47.8,29.90,NNW,340,5.0,10.0,17,0.00,,,0.00,622,Wunderground v.1.15,2015-07-30 23:39:00,
2015-07-30 16:40:00,101.0,46.6,29.89,NW,323,8.0,10.0,16,0.00,,,0.00,573,Wunderground v.1.15,2015-07-30 23:40:00,
2015-07-30 16:41:00,101.1,46.6,29.89,NW,325,6.0,10.0,16,0.00,,,0.00,571,Wunderground v.1.15,2015-07-30 23:41:00,
2015-07-30 16:42:00,101.1,44.9,29.89,NW,309,6.0,10.0,15,0.00,,,0.00,570,Wunderground v.1.15,2015-07-30 23:42:00,
2015-07-30 16:43:00,101.0,46.6,29.89,NNW,339,3.0,11.0,16,0.00,,,0.00,568,Wunderground v.1.15,2015-07-30 23:43:00,
2015-07-30 16:44:00,100.7,47.9,29.89,NW,316,4.0,6.0,17,0.00,,,0.00,613,Wunderground v.1.15,2015-07-30 23:44:00,
2015-07-30 16:45:00,101.0,44.9,29.89,NNW,335,3.0,10.0,15,0.00,,,0.00,561,Wunderground v.1.15,2015-07-30 23:45:00,
2015-07-30 16:46:00,101.0,44.9,29.89,NNW,346,2.0,10.0,15,0.00,,,0.00,555,Wunderground v.1.15,2015-07-30 23:46:00,
2015-07-30 16:47:00,101.0,44.9,29.89,NNW,338,8.0,10.0,15,0.00,,,0.00,552,Wunderground v.1.15,2015-07-30 23:47:00,
2015-07-30 16:49:00,101.0,44.9,29.89,NNW,343,6.0,10.0,15,0.00,,,0.00,547,Wunderground v.1.15,2015-07-30 23:49:00,
2015-07-30 16:50:00,101.0,46.6,29.89,NW,311,7.0,10.0,16,0.00,,,0.00,547,Wunderground v.1.15,2015-07-30 23:50:00,
2015-07-30 16:51:00,101.0,46.6,29.89,NW,314,7.0,10.0,16,0.00,,,0.00,541,Wunderground v.1.15,2015-07-30 23:51:00,
2015-07-30 16:52:00,101.1,46.6,29.89,NNW,343,10.0,10.0,16,0.00,,,0.00,540,Wunderground v.1.15,2015-07-30 23:52:00,
2015-07-30 16:54:00,101.1,46.6,29.89,NW,321,6.0,6.0,16,0.00,,,0.00,536,Wunderground v.1.15,2015-07-30 23:54:00,
2015-07-30 16:55:00,101.1,46.6,29.89,North,355,7.0,12.0,16,0.00,,,0.00,534,Wunderground v.1.15,2015-07-30 23:55:00,
2015-07-30 16:58:00,101.1,46.6,29.89,NW,319,6.0,12.0,16,0.00,,,0.00,522,Wunderground v.1.15,2015-07-30 23:58:00,
2015-07-30 17:00:00,101.1,46.6,29.89,NW,308,6.0,10.0,16,0.00,,,0.00,573,Wunderground v.1.15,2015-07-31 00:00:00,
2015-07-30 17:05:00,101.0,44.9,29.89,NNW,338,2.0,10.0,15,0.00,,,0.00,559,Wunderground v.1.15,2015-07-31 00:05:00,
2015-07-30 17:08:00,100.8,44.7,29.89,NW,314,8.0,14.0,15,0.00,,,0.00,496,Wunderground v.1.15,2015-07-31 00:08:00,
2015-07-30 17:09:00,100.7,44.6,29.89,North,5,7.0,14.0,15,0.00,,,0.00,494,Wunderground v.1.15,2015-07-31 00:09:00,
2015-07-30 17:10:00,101.0,46.6,29.89,NW,326,6.0,10.0,16,0.00,,,0.00,543,Wunderground v.1.15,2015-07-31 00:10:00,
2015-07-30 17:12:00,100.6,46.2,29.89,NW,319,7.0,10.0,16,0.00,,,0.00,487,Wunderground v.1.15,2015-07-31 00:12:00,
2015-07-30 17:13:00,100.6,46.2,29.89,NNW,331,4.0,11.0,16,0.00,,,0.00,483,Wunderground v.1.15,2015-07-31 00:13:00,
2015-07-30 17:14:00,100.5,46.2,29.89,NW,313,6.0,11.0,16,0.00,,,0.00,480,Wunderground v.1.15,2015-07-31 00:14:00,
2015-07-30 17:15:00,101.1,46.6,29.89,NNW,338,11.0,12.0,16,0.00,,,0.00,533,Wunderground v.1.15,2015-07-31 00:15:00,
2015-07-30 17:19:00,100.6,44.5,29.89,WNW,292,6.0,11.0,15,0.00,,,0.00,466,Wunderground v.1.15,2015-07-31 00:19:00,
2015-07-30 17:22:00,100.5,46.2,29.89,NW,315,13.0,15.0,16,0.00,,,0.00,461,Wunderground v.1.15,2015-07-31 00:22:00,
2015-07-30 17:24:00,101.1,46.6,29.89,NW,315,7.0,7.0,16,0.00,,,0.00,517,Wunderground v.1.15,2015-07-31 00:24:00,
2015-07-30 17:27:00,100.3,47.6,29.89,NW,321,10.0,15.0,17,0.00,,,0.00,452,Wunderground v.1.15,2015-07-31 00:27:00,
2015-07-30 17:28:00,100.3,47.6,29.89,North,355,12.0,15.0,17,0.00,,,0.00,452,Wunderground v.1.15,2015-07-31 00:28:00,
2015-07-30 17:29:00,100.7,44.6,29.89,North,351,7.0,14.0,15,0.00,,,0.00,490,Wunderground v.1.15,2015-07-31 00:29:00,
2015-07-30 17:30:00,100.0,45.8,29.89,NW,321,5.0,8.0,16,0.00,,,0.00,443,Wunderground v.1.15,2015-07-31 00:30:00,
2015-07-30 17:31:00,100.0,47.4,29.89,NNW,327,7.0,10.0,17,0.00,,,0.00,436,Wunderground v.1.15,2015-07-31 00:31:00,
2015-07-30 17:32:00,100.0,47.4,29.89,NNW,343,5.0,10.0,17,0.00,,,0.00,429,Wunderground v.1.15,2015-07-31 00:32:00,
2015-07-30 17:33:00,100.0,47.4,29.89,NNW,327,8.0,10.0,17,0.00,,,0.00,429,Wunderground v.1.15,2015-07-31 00:33:00,
2015-07-30 17:34:00,100.5,46.2,29.89,NW,322,4.0,11.0,16,0.00,,,0.00,480,Wunderground v.1.15,2015-07-31 00:34:00,
2015-07-30 17:35:00,100.0,47.4,29.88,NNW,346,12.0,13.0,17,0.00,,,0.00,424,Wunderground v.1.15,2015-07-31 00:35:00,
2015-07-30 17:36:00,100.0,47.4,29.89,NW,321,5.0,13.0,17,0.00,,,0.00,422,Wunderground v.1.15,2015-07-31 00:36:00,
2015-07-30 17:37:00,100.0,47.4,29.89,NNW,346,4.0,13.0,17,0.00,,,0.00,418,Wunderground v.1.15,2015-07-31 00:37:00,
2015-07-30 17:38:00,100.0,47.4,29.89,NW,325,3.0,13.0,17,0.00,,,0.00,413,Wunderground v.1.15,2015-07-31 00:38:00,
2015-07-30 17:39:00,100.5,46.2,29.89,NNW,333,7.0,12.0,16,0.00,,,0.00,466,Wunderground v.1.15,2015-07-31 00:39:00,
2015-07-30 17:40:00,100.1,49.0,29.89,North,349,3.0,6.0,18,0.00,,,0.00,408,Wunderground v.1.15,2015-07-31 00:40:00,
2015-07-30 17:41:00,100.1,49.0,29.88,NNE,22,5.0,12.0,18,0.00,,,0.00,404,Wunderground v.1.15,2015-07-31 00:41:00,
2015-07-30 17:42:00,100.1,49.0,29.88,North,360,0.0,12.0,18,0.00,,,0.00,401,Wunderground v.1.15,2015-07-31 00:42:00,
2015-07-30 17:43:00,100.1,49.0,29.88,NNW,337,3.0,12.0,18,0.00,,,0.00,397,Wunderground v.1.15,2015-07-31 00:43:00,
2015-07-30 17:44:00,100.2,49.1,29.89,NNW,336,4.0,12.0,18,0.00,,,0.00,392,Wunderground v.1.15,2015-07-31 00:44:00,
2015-07-30 17:45:00,100.2,49.1,29.88,WNW,298,6.0,12.0,18,0.00,,,0.00,390,Wunderground v.1.15,2015-07-31 00:45:00,
2015-07-30 17:46:00,100.1,49.0,29.88,NW,313,8.0,12.0,18,0.00,,,0.00,387,Wunderground v.1.15,2015-07-31 00:46:00,
2015-07-30 17:47:00,100.1,49.0,29.88,NNW,348,7.0,12.0,18,0.00,,,0.00,385,Wunderground v.1.15,2015-07-31 00:47:00,
2015-07-30 17:48:00,100.1,49.0,29.88,NW,314,5.0,12.0,18,0.00,,,0.00,380,Wunderground v.1.15,2015-07-31 00:48:00,
2015-07-30 17:49:00,100.0,48.9,29.88,NW,310,3.0,12.0,18,0.00,,,0.00,380,Wunderground v.1.15,2015-07-31 00:49:00,
2015-07-30 17:50:00,100.0,48.9,29.88,NNW,345,4.0,8.0,18,0.00,,,0.00,376,Wunderground v.1.15,2015-07-31 00:50:00,
2015-07-30 17:54:00,99.8,48.7,29.88,NW,317,8.0,14.0,18,0.00,,,0.00,364,Wunderground v.1.15,2015-07-31 00:54:00,
2015-07-30 17:55:00,99.8,48.7,29.88,North,360,8.0,14.0,18,0.00,,,0.00,360,Wunderground v.1.15,2015-07-31 00:55:00,
2015-07-30 17:57:00,99.7,50.1,29.88,NW,325,3.0,14.0,19,0.00,,,0.00,355,Wunderground v.1.15,2015-07-31 00:57:00,
2015-07-30 17:59:00,99.7,48.7,29.88,NNW,347,2.0,14.0,18,0.00,,,0.00,348,Wunderground v.1.15,2015-07-31 00:59:00,
2015-07-30 18:00:00,100.1,49.0,29.88,NW,322,7.0,7.0,18,0.00,,,0.00,408,Wunderground v.1.15,2015-07-31 01:00:00,
2015-07-30 18:05:00,100.1,49.0,29.88,NW,317,7.0,12.0,18,0.00,,,0.00,390,Wunderground v.1.15,2015-07-31 01:05:00,
2015-07-30 18:10:00,100.0,48.9,29.88,NW,325,8.0,8.0,18,0.00,,,0.00,376,Wunderground v.1.15,2015-07-31 01:10:00,
2015-07-30 18:15:00,99.8,48.7,29.88,North,355,6.0,14.0,18,0.00,,,0.00,360,Wunderground v.1.15,2015-07-31 01:15:00,
2015-07-30 18:17:00,99.0,49.5,29.88,WNW,292,4.0,13.0,19,0.00,,,0.00,292,Wunderground v.1.15,2015-07-31 01:17:00,
2015-07-30 18:20:00,99.6,48.6,29.88,NW,307,6.0,12.0,18,0.00,,,0.00,345,Wunderground v.1.15,2015-07-31 01:20:00,
2015-07-30 18:25:00,99.6,48.6,29.88,NNW,338,7.0,12.0,18,0.00,,,0.00,341,Wunderground v.1.15,2015-07-31 01:25:00,
2015-07-30 18:28:00,98.9,49.5,29.88,NNW,334,5.0,9.0,19,0.00,,,0.00,269,Wunderground v.1.15,2015-07-31 01:28:00,
2015-07-30 18:29:00,98.8,49.4,29.88,NNE,15,7.0,10.0,19,0.00,,,0.00,264,Wunderground v.1.15,2015-07-31 01:29:00,
2015-07-30 18:30:00,99.2,48.2,29.88,NW,321,7.0,9.0,18,0.00,,,0.00,313,Wunderground v.1.15,2015-07-31 01:30:00,
2015-07-30 18:31:00,98.6,47.8,29.88,NW,318,9.0,13.0,18,0.00,,,0.00,255,Wunderground v.1.15,2015-07-31 01:31:00,
2015-07-30 18:32:00,98.5,49.1,29.88,NNW,329,3.0,13.0,19,0.00,,,0.00,250,Wunderground v.1.15,2015-07-31 01:32:00,
2015-07-30 18:33:00,98.5,49.1,29.88,NNW,340,10.0,13.0,19,0.00,,,0.00,246,Wunderground v.1.15,2015-07-31 01:33:00,
2015-07-30 18:34:00,98.5,49.1,29.88,NNW,342,6.0,13.0,19,0.00,,,0.00,243,Wunderground v.1.15,2015-07-31 01:34:00,
2015-07-30 18:35:00,98.4,49.0,29.88,NNW,336,4.0,13.0,19,0.00,,,0.00,239,Wunderground v.1.15,2015-07-31 01:35:00,
2015-07-30 18:36:00,98.4,49.0,29.88,NW,323,4.0,13.0,19,0.00,,,0.00,236,Wunderground v.1.15,2015-07-31 01:36:00,
2015-07-30 18:37:00,98.4,49.0,29.88,North,355,7.0,13.0,19,0.00,,,0.00,232,Wunderground v.1.15,2015-07-31 01:37:00,
2015-07-30 18:38:00,98.3,49.0,29.88,NNW,333,7.0,13.0,19,0.00,,,0.00,229,Wunderground v.1.15,2015-07-31 01:38:00,
2015-07-30 18:39:00,98.3,49.0,29.88,NW,323,5.0,13.0,19,0.00,,,0.00,225,Wunderground v.1.15,2015-07-31 01:39:00,
2015-07-30 18:40:00,98.9,49.5,29.88,NNW,348,0.0,7.0,19,0.00,,,0.00,281,Wunderground v.1.15,2015-07-31 01:40:00,
2015-07-30 18:41:00,98.2,50.3,29.88,NNW,338,5.0,6.0,20,0.00,,,0.00,220,Wunderground v.1.15,2015-07-31 01:41:00,
2015-07-30 18:42:00,98.2,50.3,29.88,NNW,337,3.0,6.0,20,0.00,,,0.00,218,Wunderground v.1.15,2015-07-31 01:42:00,
2015-07-30 18:43:00,98.1,48.8,29.88,NW,315,5.0,9.0,19,0.00,,,0.00,211,Wunderground v.1.15,2015-07-31 01:43:00,
2015-07-30 18:44:00,98.1,48.8,29.88,NNW,338,4.0,9.0,19,0.00,,,0.00,209,Wunderground v.1.15,2015-07-31 01:44:00,
2015-07-30 18:45:00,98.0,50.1,29.88,NNW,340,6.0,9.0,20,0.00,,,0.00,206,Wunderground v.1.15,2015-07-31 01:45:00,
2015-07-30 18:46:00,98.0,50.1,29.88,NNW,340,0.0,9.0,20,0.00,,,0.00,204,Wunderground v.1.15,2015-07-31 01:46:00,
2015-07-30 18:47:00,98.0,50.1,29.88,NNW,340,4.0,10.0,20,0.00,,,0.00,199,Wunderground v.1.15,2015-07-31 01:47:00,
2015-07-30 18:48:00,98.0,50.1,29.88,NW,314,4.0,10.0,20,0.00,,,0.00,195,Wunderground v.1.15,2015-07-31 01:48:00,
2015-07-30 18:49:00,97.9,50.0,29.88,NW,325,1.0,10.0,20,0.00,,,0.00,192,Wunderground v.1.15,2015-07-31 01:49:00,
2015-07-30 18:50:00,97.9,50.0,29.88,NW,323,4.0,5.0,20,0.00,,,0.00,188,Wunderground v.1.15,2015-07-31 01:50:00,
2015-07-30 18:51:00,97.9,50.0,29.88,NW,323,5.0,6.0,20,0.00,,,0.00,185,Wunderground v.1.15,2015-07-31 01:51:00,
2015-07-30 18:52:00,97.9,50.0,29.88,North,360,3.0,6.0,20,0.00,,,0.00,179,Wunderground v.1.15,2015-07-31 01:52:00,
2015-07-30 18:53:00,97.8,49.9,29.88,NNW,342,5.0,8.0,20,0.00,,,0.00,176,Wunderground v.1.15,2015-07-31 01:53:00,
2015-07-30 18:55:00,97.8,49.9,29.88,NW,320,6.0,8.0,20,0.00,,,0.00,171,Wunderground v.1.15,2015-07-31 01:55:00,
2015-07-30 18:57:00,97.6,49.8,29.88,NNW,333,0.0,8.0,20,0.00,,,0.00,162,Wunderground v.1.15,2015-07-31 01:57:00,
2015-07-30 19:00:00,98.2,48.9,29.88,NNW,338,3.0,6.0,19,0.00,,,0.00,220,Wunderground v.1.15,2015-07-31 02:00:00,
2015-07-30 19:05:00,98.0,48.7,29.88,NNW,339,4.0,9.0,19,0.00,,,0.00,204,Wunderground v.1.15,2015-07-31 02:05:00,
2015-07-30 19:10:00,97.9,50.0,29.88,NW,317,5.0,5.0,20,0.00,,,0.00,185,Wunderground v.1.15,2015-07-31 02:10:00,
2015-07-30 19:15:00,97.7,49.9,29.88,NW,326,7.0,8.0,20,0.00,,,0.00,167,Wunderground v.1.15,2015-07-31 02:15:00,